Time,TemperatureF,DewpointF,PressureIn,WindDirection,WindDirectionDegrees,WindSpeedMPH,WindSpeedGustMPH,Humidity,HourlyPrecipIn,Conditions,Clouds,dailyrainin,SoftwareType,DateUTC
2013-05-12 00:01:00,75.4,70.6,30.12,NNW,328,0.0,0.0,85,0.00,,---,0.00,VWS V14.01,2013-05-12 04:01:00,
2013-05-12 00:06:00,75.4,70.6,30.12,NNW,328,0.0,0.0,85,0.00,,---,0.00,VWS V14.01,2013-05-12 04:06:00,
2013-05-12 00:11:00,75.4,70.6,30.12,NNW,328,0.0,0.0,85,0.00,,---,0.00,VWS V14.01,2013-05-12 04:11:00,
2013-05-12 00:12:00,75.4,70.6,30.12,NNW,328,0.0,0.0,85,0.00,,---,0.00,VWS V14.01,2013-05-12 04:12:00,
2013-05-12 00:16:00,75.4,70.6,30.12,NNW,328,0.0,0.0,85,0.00,,---,0.00,VWS V14.01,2013-05-12 04:16:00,
2013-05-12 00:17:00,75.4,70.6,30.12,NNW,328,0.0,0.0,85,0.00,,---,0.00,VWS V14.01,2013-05-12 04:17:00,
2013-05-12 00:21:00,75.2,70.4,30.12,NNW,328,0.0,0.0,85,0.00,,---,0.00,VWS V14.01,2013-05-12 04:21:00,
2013-05-12 00:22:00,75.2,70.4,30.12,NNW,328,0.0,0.0,85,0.00,,---,0.00,VWS V14.01,2013-05-12 04:22:00,
2013-05-12 00:26:00,75.2,70.4,30.12,NNW,328,0.0,0.0,85,0.00,,---,0.00,VWS V14.01,2013-05-12 04:26:00,
2013-05-12 00:27:00,75.2,70.7,30.12,NNW,328,0.0,0.0,86,0.00,,---,0.00,VWS V14.01,2013-05-12 04:27:00,
2013-05-12 00:31:00,75.2,70.7,30.12,NNW,328,0.0,0.0,86,0.00,,---,0.00,VWS V14.01,2013-05-12 04:31:00,
2013-05-12 00:33:00,75.2,70.7,30.12,NNW,328,0.0,0.0,86,0.00,,---,0.00,VWS V14.01,2013-05-12 04:33:00,
2013-05-12 00:36:00,75.2,70.7,30.12,NNW,328,0.0,0.0,86,0.00,,---,0.00,VWS V14.01,2013-05-12 04:36:00,
2013-05-12 00:38:00,75.2,70.7,30.12,NNW,328,0.0,0.0,86,0.00,,---,0.00,VWS V14.01,2013-05-12 04:38:00,
2013-05-12 00:41:00,75.2,70.7,30.12,NNW,328,0.0,0.0,86,0.00,,---,0.00,VWS V14.01,2013-05-12 04:41:00,
2013-05-12 00:42:00,75.2,70.7,30.12,NNW,328,0.0,0.0,86,0.00,,---,0.00,VWS V14.01,2013-05-12 04:42:00,
2013-05-12 00:43:00,75.2,70.7,30.12,NNW,328,0.0,0.0,86,0.00,,---,0.00,VWS V14.01,2013-05-12 04:43:00,
2013-05-12 00:46:00,75.0,70.9,30.12,NNW,328,0.0,0.0,87,0.00,,---,0.00,VWS V14.01,2013-05-12 04:46:00,
2013-05-12 00:47:00,75.0,70.9,30.12,NNW,328,0.0,0.0,87,0.00,,---,0.00,VWS V14.01,2013-05-12 04:47:00,
2013-05-12 00:48:00,75.0,70.9,30.12,NNW,328,0.0,0.0,87,0.00,,---,0.00,VWS V14.01,2013-05-12 04:48:00,
2013-05-12 00:51:00,75.0,70.9,30.09,NNW,328,0.0,0.0,87,0.00,,---,0.00,VWS V14.01,2013-05-12 04:51:00,
2013-05-12 00:52:00,75.0,70.9,30.09,NNW,328,0.0,0.0,87,0.00,,---,0.00,VWS V14.01,2013-05-12 04:52:00,
2013-05-12 00:53:00,75.0,70.9,30.09,NNW,328,0.0,0.0,87,0.00,,---,0.00,VWS V14.01,2013-05-12 04:53:00,
2013-05-12 00:56:00,74.8,70.7,30.09,NNW,328,0.0,0.0,87,0.00,,---,0.00,VWS V14.01,2013-05-12 04:56:00,
2013-05-12 00:57:00,74.8,70.7,30.09,NNW,328,0.0,0.0,87,0.00,,---,0.00,VWS V14.01,2013-05-12 04:57:00,
2013-05-12 00:58:00,74.8,70.7,30.09,NNW,328,0.0,0.0,87,0.00,,---,0.00,VWS V14.01,2013-05-12 04:58:00,
2013-05-12 01:02:00,75.0,70.9,30.09,NNW,328,0.0,0.0,87,0.00,,---,0.00,VWS V14.01,2013-05-12 05:02:00,
2013-05-12 01:03:00,75.0,70.9,30.09,NNW,328,0.0,0.0,87,0.00,,---,0.00,VWS V14.01,2013-05-12 05:03:00,
2013-05-12 01:07:00,75.0,70.9,30.09,NNW,328,0.0,0.0,87,0.00,,---,0.00,VWS V14.01,2013-05-12 05:07:00,
2013-05-12 01:09:00,75.0,70.9,30.09,NNW,328,0.0,0.0,87,0.00,,---,0.00,VWS V14.01,2013-05-12 05:09:00,
2013-05-12 01:12:00,75.0,70.9,30.09,NNW,328,0.0,0.0,87,0.00,,---,0.00,VWS V14.01,2013-05-12 05:12:00,
2013-05-12 01:13:00,74.7,70.5,30.09,NNW,328,0.0,0.0,87,0.00,,---,0.00,VWS V14.01,2013-05-12 05:13:00,
2013-05-12 01:14:00,74.7,70.5,30.09,NNW,328,0.0,0.0,87,0.00,,---,0.00,VWS V14.01,2013-05-12 05:14:00,
2013-05-12 01:17:00,74.7,70.5,30.09,NNW,328,0.0,0.0,87,0.00,,---,0.00,VWS V14.01,2013-05-12 05:17:00,
2013-05-12 01:18:00,74.7,70.5,30.09,NNW,328,0.0,0.0,87,0.00,,---,0.00,VWS V14.01,2013-05-12 05:18:00,
2013-05-12 01:19:00,74.7,70.5,30.09,NNW,328,0.0,0.0,87,0.00,,---,0.00,VWS V14.01,2013-05-12 05:19:00,
2013-05-12 01:22:00,74.8,70.7,30.09,NNW,328,0.0,0.0,87,0.00,,---,0.00,VWS V14.01,2013-05-12 05:22:00,
2013-05-12 01:23:00,74.8,70.7,30.09,NNW,328,0.0,0.0,87,0.00,,---,0.00,VWS V14.01,2013-05-12 05:23:00,
2013-05-12 01:24:00,74.8,70.7,30.09,NNW,328,0.0,0.0,87,0.00,,---,0.00,VWS V14.01,2013-05-12 05:24:00,
2013-05-12 01:27:00,74.8,70.7,30.09,NNW,328,0.0,0.0,87,0.00,,---,0.00,VWS V14.01,2013-05-12 05:27:00,
2013-05-12 01:28:00,74.8,70.7,30.09,NNW,328,0.0,0.0,87,0.00,,---,0.00,VWS V14.01,2013-05-12 05:28:00,
2013-05-12 01:29:00,74.8,70.7,30.09,NNW,328,0.0,0.0,87,0.00,,---,0.00,VWS V14.01,2013-05-12 05:29:00,
2013-05-12 01:32:00,74.8,71.1,30.09,NNW,328,0.0,0.0,88,0.00,,---,0.00,VWS V14.01,2013-05-12 05:32:00,
2013-05-12 01:33:00,74.8,71.1,30.09,NNW,328,0.0,0.0,88,0.00,,---,0.00,VWS V14.01,2013-05-12 05:33:00,
2013-05-12 01:35:00,74.8,71.1,30.09,NNW,328,0.0,0.0,88,0.00,,---,0.00,VWS V14.01,2013-05-12 05:35:00,
2013-05-12 01:37:00,74.8,71.1,30.09,NNW,328,0.0,0.0,88,0.00,,---,0.00,VWS V14.01,2013-05-12 05:37:00,
2013-05-12 01:38:00,74.8,71.1,30.09,NNW,328,0.0,0.0,88,0.00,,---,0.00,VWS V14.01,2013-05-12 05:38:00,
2013-05-12 01:40:00,74.7,70.9,30.09,NNW,328,0.0,0.0,88,0.00,,---,0.00,VWS V14.01,2013-05-12 05:40:00,
2013-05-12 01:42:00,74.7,70.9,30.09,NNW,328,0.0,0.0,88,0.00,,---,0.00,VWS V14.01,2013-05-12 05:42:00,
2013-05-12 01:43:00,74.7,70.9,30.09,NNW,328,0.0,0.0,88,0.00,,---,0.00,VWS V14.01,2013-05-12 05:43:00,
2013-05-12 01:44:00,74.7,70.9,30.09,NNW,328,0.0,0.0,88,0.00,,---,0.00,VWS V14.01,2013-05-12 05:44:00,
2013-05-12 01:45:00,74.7,70.9,30.09,NNW,328,0.0,0.0,88,0.00,,---,0.00,VWS V14.01,2013-05-12 05:45:00,
2013-05-12 01:47:00,74.7,70.9,30.09,NNW,328,0.0,0.0,88,0.00,,---,0.00,VWS V14.01,2013-05-12 05:47:00,
2013-05-12 01:48:00,74.7,70.9,30.09,NNW,328,0.0,0.0,88,0.00,,---,0.00,VWS V14.01,2013-05-12 05:48:00,
2013-05-12 01:49:00,74.7,70.9,30.09,NNW,328,0.0,0.0,88,0.00,,---,0.00,VWS V14.01,2013-05-12 05:49:00,
2013-05-12 01:50:00,74.7,70.9,30.09,NNW,328,0.0,0.0,88,0.00,,---,0.00,VWS V14.01,2013-05-12 05:50:00,
2013-05-12 01:52:00,74.7,70.9,30.09,NNW,328,0.0,0.0,88,0.00,,---,0.00,VWS V14.01,2013-05-12 05:52:00,
2013-05-12 01:53:00,74.7,70.9,30.09,NNW,328,0.0,0.0,88,0.00,,---,0.00,VWS V14.01,2013-05-12 05:53:00,
2013-05-12 01:54:00,74.7,70.9,30.09,NNW,328,0.0,0.0,88,0.00,,---,0.00,VWS V14.01,2013-05-12 05:54:00,
2013-05-12 01:55:00,74.7,70.9,30.09,NNW,328,0.0,0.0,88,0.00,,---,0.00,VWS V14.01,2013-05-12 05:55:00,
2013-05-12 01:57:00,74.7,70.9,30.09,NNW,328,0.0,0.0,88,0.00,,---,0.00,VWS V14.01,2013-05-12 05:57:00,
2013-05-12 01:58:00,74.7,70.9,30.09,NNW,328,0.0,0.0,88,0.00,,---,0.00,VWS V14.01,2013-05-12 05:58:00,
2013-05-12 01:59:00,74.7,70.9,30.09,NNW,328,0.0,0.0,88,0.00,,---,0.00,VWS V14.01,2013-05-12 05:59:00,
2013-05-12 02:00:00,74.7,70.9,30.09,NNW,328,0.0,0.0,88,0.00,,---,0.00,VWS V14.01,2013-05-12 06:00:00,
2013-05-12 02:02:00,74.7,70.9,30.09,NNW,328,0.0,0.0,88,0.00,,---,0.00,VWS V14.01,2013-05-12 06:02:00,
2013-05-12 02:03:00,74.7,70.9,30.09,NNW,328,0.0,0.0,88,0.00,,---,0.00,VWS V14.01,2013-05-12 06:03:00,
2013-05-12 02:04:00,74.7,70.9,30.09,NNW,328,0.0,0.0,88,0.00,,---,0.00,VWS V14.01,2013-05-12 06:04:00,
2013-05-12 02:05:00,74.7,70.9,30.09,NNW,328,0.0,0.0,88,0.00,,---,0.00,VWS V14.01,2013-05-12 06:05:00,
2013-05-12 02:07:00,74.7,70.9,30.09,NNW,328,0.0,0.0,88,0.00,,---,0.00,VWS V14.01,2013-05-12 06:07:00,
2013-05-12 02:09:00,74.7,70.9,30.09,NNW,328,0.0,0.0,88,0.00,,---,0.00,VWS V14.01,2013-05-12 06:09:00,
2013-05-12 02:10:00,74.7,70.9,30.09,NNW,328,0.0,0.0,88,0.00,,---,0.00,VWS V14.01,2013-05-12 06:10:00,
2013-05-12 02:11:00,74.7,70.9,30.09,NNW,328,0.0,0.0,88,0.00,,---,0.00,VWS V14.01,2013-05-12 06:11:00,
2013-05-12 02:12:00,74.7,70.9,30.09,NNW,328,0.0,0.0,88,0.00,,---,0.00,VWS V14.01,2013-05-12 06:12:00,
2013-05-12 02:14:00,74.7,70.9,30.09,NNW,328,0.0,0.0,88,0.00,,---,0.00,VWS V14.01,2013-05-12 06:14:00,
2013-05-12 02:15:00,74.7,70.9,30.09,NNW,328,0.0,0.0,88,0.00,,---,0.00,VWS V14.01,2013-05-12 06:15:00,
2013-05-12 02:16:00,74.7,70.9,30.09,NNW,328,0.0,0.0,88,0.00,,---,0.00,VWS V14.01,2013-05-12 06:16:00,
2013-05-12 02:18:00,74.5,71.0,30.09,NNW,328,0.0,0.0,89,0.00,,---,0.00,VWS V14.01,2013-05-12 06:18:00,
2013-05-12 02:19:00,74.5,71.0,30.09,NNW,328,0.0,0.0,89,0.00,,---,0.00,VWS V14.01,2013-05-12 06:19:00,
2013-05-12 02:20:00,74.5,71.0,30.06,NNW,328,0.0,0.0,89,0.00,,---,0.00,VWS V14.01,2013-05-12 06:20:00,
2013-05-12 02:21:00,74.5,71.0,30.06,NNW,328,0.0,0.0,89,0.00,,---,0.00,VWS V14.01,2013-05-12 06:21:00,
2013-05-12 02:23:00,74.5,71.0,30.06,NNW,328,0.0,0.0,89,0.00,,---,0.00,VWS V14.01,2013-05-12 06:23:00,
2013-05-12 02:24:00,74.5,71.0,30.06,NNW,328,0.0,0.0,89,0.00,,---,0.00,VWS V14.01,2013-05-12 06:24:00,
2013-05-12 02:26:00,74.5,71.0,30.06,NNW,328,0.0,0.0,89,0.00,,---,0.00,VWS V14.01,2013-05-12 06:26:00,
2013-05-12 02:28:00,74.5,71.0,30.06,NNW,328,0.0,0.0,89,0.00,,---,0.00,VWS V14.01,2013-05-12 06:28:00,
2013-05-12 02:29:00,74.5,71.0,30.06,NNW,328,0.0,0.0,89,0.00,,---,0.00,VWS V14.01,2013-05-12 06:29:00,
2013-05-12 02:31:00,74.5,71.0,30.06,NNW,328,0.0,0.0,89,0.00,,---,0.00,VWS V14.01,2013-05-12 06:31:00,
2013-05-12 02:33:00,74.5,71.0,30.06,NNW,328,0.0,0.0,89,0.00,,---,0.00,VWS V14.01,2013-05-12 06:33:00,
2013-05-12 02:34:00,74.5,71.0,30.06,NNW,328,0.0,0.0,89,0.00,,---,0.00,VWS V14.01,2013-05-12 06:34:00,
2013-05-12 02:36:00,74.5,71.0,30.06,NNW,328,0.0,0.0,89,0.00,,---,0.00,VWS V14.01,2013-05-12 06:36:00,
2013-05-12 02:38:00,74.5,71.0,30.06,NNW,328,0.0,0.0,89,0.00,,---,0.00,VWS V14.01,2013-05-12 06:38:00,
2013-05-12 02:40:00,74.5,71.0,30.06,NNW,328,0.0,0.0,89,0.00,,---,0.00,VWS V14.01,2013-05-12 06:40:00,
2013-05-12 02:41:00,74.5,71.0,30.06,NNW,328,0.0,0.0,89,0.00,,---,0.00,VWS V14.01,2013-05-12 06:41:00,
2013-05-12 02:42:00,74.5,71.0,30.06,NNW,328,0.0,0.0,89,0.00,,---,0.00,VWS V14.01,2013-05-12 06:42:00,
2013-05-12 02:43:00,74.5,71.0,30.06,NNW,328,0.0,0.0,89,0.00,,---,0.00,VWS V14.01,2013-05-12 06:43:00,
2013-05-12 02:45:00,74.5,71.0,30.06,NNW,328,0.0,0.0,89,0.00,,---,0.00,VWS V14.01,2013-05-12 06:45:00,
2013-05-12 02:46:00,74.5,71.0,30.06,NNW,328,0.0,0.0,89,0.00,,---,0.00,VWS V14.01,2013-05-12 06:46:00,
2013-05-12 02:47:00,74.5,71.0,30.06,NNW,328,0.0,0.0,89,0.00,,---,0.00,VWS V14.01,2013-05-12 06:47:00,
2013-05-12 02:49:00,74.5,71.0,30.06,NNW,328,0.0,0.0,89,0.00,,---,0.00,VWS V14.01,2013-05-12 06:49:00,
2013-05-12 02:50:00,74.5,71.0,30.06,NNW,328,0.0,0.0,89,0.00,,---,0.00,VWS V14.01,2013-05-12 06:50:00,
2013-05-12 02:52:00,74.5,71.0,30.06,NNW,328,0.0,0.0,89,0.00,,---,0.00,VWS V14.01,2013-05-12 06:52:00,
2013-05-12 02:54:00,74.5,71.4,30.06,NNW,328,0.0,0.0,90,0.00,,---,0.00,VWS V14.01,2013-05-12 06:54:00,
2013-05-12 02:55:00,74.5,71.4,30.06,NNW,328,0.0,0.0,90,0.00,,---,0.00,VWS V14.01,2013-05-12 06:55:00,
2013-05-12 02:57:00,74.5,71.4,30.06,NNW,328,0.0,0.0,90,0.00,,---,0.00,VWS V14.01,2013-05-12 06:57:00,
2013-05-12 02:59:00,74.5,71.4,30.06,NNW,328,0.0,0.0,90,0.00,,---,0.00,VWS V14.01,2013-05-12 06:59:00,
2013-05-12 03:00:00,74.5,71.4,30.06,NNW,328,0.0,0.0,90,0.00,,---,0.00,VWS V14.01,2013-05-12 07:00:00,
2013-05-12 03:02:00,74.3,71.2,30.06,NNW,328,0.0,0.0,90,0.00,,---,0.00,VWS V14.01,2013-05-12 07:02:00,
2013-05-12 03:04:00,74.3,71.2,30.06,NNW,328,0.0,0.0,90,0.00,,---,0.00,VWS V14.01,2013-05-12 07:04:00,
2013-05-12 03:05:00,74.3,71.2,30.06,NNW,328,0.0,0.0,90,0.00,,---,0.00,VWS V14.01,2013-05-12 07:05:00,
2013-05-12 03:07:00,74.3,71.2,30.06,NNW,328,0.0,0.0,90,0.00,,---,0.00,VWS V14.01,2013-05-12 07:07:00,
2013-05-12 03:09:00,74.3,71.2,30.06,NNW,328,0.0,0.0,90,0.00,,---,0.00,VWS V14.01,2013-05-12 07:09:00,
2013-05-12 03:10:00,74.3,71.2,30.06,NNW,328,0.0,0.0,90,0.00,,---,0.00,VWS V14.01,2013-05-12 07:10:00,
2013-05-12 03:12:00,74.3,71.2,30.06,NNW,328,0.0,0.0,90,0.00,,---,0.00,VWS V14.01,2013-05-12 07:12:00,
2013-05-12 03:13:00,74.3,71.2,30.06,NNW,328,0.0,0.0,90,0.00,,---,0.00,VWS V14.01,2013-05-12 07:13:00,
2013-05-12 03:15:00,74.3,71.2,30.06,NNW,328,0.0,0.0,90,0.00,,---,0.00,VWS V14.01,2013-05-12 07:15:00,
2013-05-12 03:18:00,74.3,71.2,30.06,NNW,328,0.0,0.0,90,0.00,,---,0.00,VWS V14.01,2013-05-12 07:18:00,
2013-05-12 03:20:00,74.1,71.0,30.06,NNW,328,0.0,0.0,90,0.00,,---,0.00,VWS V14.01,2013-05-12 07:20:00,
2013-05-12 03:23:00,74.1,71.0,30.06,NNW,328,0.0,0.0,90,0.00,,---,0.00,VWS V14.01,2013-05-12 07:23:00,
2013-05-12 03:25:00,74.1,71.0,30.06,NNW,328,0.0,0.0,90,0.00,,---,0.00,VWS V14.01,2013-05-12 07:25:00,
2013-05-12 03:26:00,74.1,71.0,30.06,NNW,328,0.0,0.0,90,0.00,,---,0.00,VWS V14.01,2013-05-12 07:26:00,
2013-05-12 03:28:00,74.1,71.0,30.06,NNW,328,0.0,0.0,90,0.00,,---,0.00,VWS V14.01,2013-05-12 07:28:00,
2013-05-12 03:30:00,74.1,71.0,30.06,NNW,328,0.0,0.0,90,0.00,,---,0.00,VWS V14.01,2013-05-12 07:30:00,
2013-05-12 03:31:00,74.1,71.0,30.06,NNW,328,0.0,0.0,90,0.00,,---,0.00,VWS V14.01,2013-05-12 07:31:00,
2013-05-12 03:33:00,74.1,71.0,30.06,NNW,328,0.0,0.0,90,0.00,,---,0.00,VWS V14.01,2013-05-12 07:33:00,
2013-05-12 03:34:00,74.1,71.0,30.06,NNW,328,0.0,0.0,90,0.00,,---,0.00,VWS V14.01,2013-05-12 07:34:00,
2013-05-12 03:35:00,74.1,71.0,30.06,NNW,328,0.0,0.0,90,0.00,,---,0.00,VWS V14.01,2013-05-12 07:35:00,
2013-05-12 03:36:00,74.1,71.0,30.06,NNW,328,0.0,0.0,90,0.00,,---,0.00,VWS V14.01,2013-05-12 07:36:00,
2013-05-12 03:38:00,74.1,71.0,30.06,NNW,328,0.0,0.0,90,0.00,,---,0.00,VWS V14.01,2013-05-12 07:38:00,
2013-05-12 03:39:00,74.1,71.0,30.06,NNW,328,0.0,0.0,90,0.00,,---,0.00,VWS V14.01,2013-05-12 07:39:00,
2013-05-12 03:40:00,74.1,71.0,30.06,NNW,328,0.0,0.0,90,0.00,,---,0.00,VWS V14.01,2013-05-12 07:40:00,
2013-05-12 03:41:00,74.1,71.0,30.06,NNW,328,0.0,0.0,90,0.00,,---,0.00,VWS V14.01,2013-05-12 07:41:00,
2013-05-12 03:43:00,74.1,71.0,30.06,NNW,328,0.0,0.0,90,0.00,,---,0.00,VWS V14.01,2013-05-12 07:43:00,
2013-05-12 03:44:00,74.1,71.0,30.06,NNW,328,0.0,0.0,90,0.00,,---,0.00,VWS V14.01,2013-05-12 07:44:00,
2013-05-12 03:45:00,74.1,71.0,30.06,NNW,328,0.0,0.0,90,0.00,,---,0.00,VWS V14.01,2013-05-12 07:45:00,
2013-05-12 03:46:00,74.1,71.0,30.06,NNW,328,0.0,0.0,90,0.00,,---,0.00,VWS V14.01,2013-05-12 07:46:00,
2013-05-12 03:49:00,73.9,71.2,30.06,NNW,328,0.0,0.0,91,0.00,,---,0.00,VWS V14.01,2013-05-12 07:49:00,
2013-05-12 03:51:00,73.9,71.2,30.06,NNW,328,0.0,0.0,91,0.00,,---,0.00,VWS V14.01,2013-05-12 07:51:00,
2013-05-12 03:54:00,73.9,71.2,30.06,NNW,328,0.0,0.0,91,0.00,,---,0.00,VWS V14.01,2013-05-12 07:54:00,
2013-05-12 03:55:00,73.9,71.2,30.06,NNW,328,0.0,0.0,91,0.00,,---,0.00,VWS V14.01,2013-05-12 07:55:00,
2013-05-12 03:56:00,73.9,71.2,30.06,NNW,328,0.0,0.0,91,0.00,,---,0.00,VWS V14.01,2013-05-12 07:56:00,
2013-05-12 03:59:00,73.9,71.2,30.06,NNW,328,0.0,0.0,91,0.00,,---,0.00,VWS V14.01,2013-05-12 07:59:00,
2013-05-12 04:00:00,73.9,71.2,30.06,NNW,328,0.0,0.0,91,0.00,,---,0.00,VWS V14.01,2013-05-12 08:00:00,
2013-05-12 04:01:00,73.9,71.2,30.06,NNW,328,0.0,0.0,91,0.00,,---,0.00,VWS V14.01,2013-05-12 08:01:00,
2013-05-12 04:04:00,73.9,71.2,30.03,NNW,328,0.0,0.0,91,0.00,,---,0.00,VWS V14.01,2013-05-12 08:04:00,
2013-05-12 04:05:00,73.9,71.2,30.03,NNW,328,0.0,0.0,91,0.00,,---,0.00,VWS V14.01,2013-05-12 08:05:00,
2013-05-12 04:06:00,73.9,71.2,30.03,NNW,328,0.0,0.0,91,0.00,,---,0.00,VWS V14.01,2013-05-12 08:06:00,
2013-05-12 04:07:00,73.9,71.2,30.03,NNW,328,0.0,0.0,91,0.00,,---,0.00,VWS V14.01,2013-05-12 08:07:00,
2013-05-12 04:10:00,73.9,71.2,30.03,NNW,328,0.0,0.0,91,0.00,,---,0.00,VWS V14.01,2013-05-12 08:10:00,
2013-05-12 04:11:00,73.9,71.2,30.03,NNW,328,0.0,0.0,91,0.00,,---,0.00,VWS V14.01,2013-05-12 08:11:00,
2013-05-12 04:12:00,73.9,71.2,30.03,NNW,328,0.0,0.0,91,0.00,,---,0.00,VWS V14.01,2013-05-12 08:12:00,
2013-05-12 04:15:00,73.9,71.2,30.03,NNW,328,0.0,0.0,91,0.00,,---,0.00,VWS V14.01,2013-05-12 08:15:00,
2013-05-12 04:16:00,73.9,71.2,30.03,NNW,328,0.0,0.0,91,0.00,,---,0.00,VWS V14.01,2013-05-12 08:16:00,
2013-05-12 04:17:00,73.9,71.2,30.03,NNW,328,0.0,0.0,91,0.00,,---,0.00,VWS V14.01,2013-05-12 08:17:00,
2013-05-12 04:20:00,73.9,71.2,30.03,NNW,328,0.0,0.0,91,0.00,,---,0.00,VWS V14.01,2013-05-12 08:20:00,
2013-05-12 04:21:00,73.9,71.2,30.03,NNW,328,0.0,0.0,91,0.00,,---,0.00,VWS V14.01,2013-05-12 08:21:00,
2013-05-12 04:22:00,73.9,71.2,30.03,NNW,328,0.0,0.0,91,0.00,,---,0.00,VWS V14.01,2013-05-12 08:22:00,
2013-05-12 04:25:00,73.9,71.2,30.03,NNW,328,0.0,0.0,91,0.00,,---,0.00,VWS V14.01,2013-05-12 08:25:00,
2013-05-12 04:26:00,73.9,71.2,30.03,NNW,328,0.0,0.0,91,0.00,,---,0.00,VWS V14.01,2013-05-12 08:26:00,
2013-05-12 04:27:00,73.9,71.2,30.03,NNW,328,0.0,0.0,91,0.00,,---,0.00,VWS V14.01,2013-05-12 08:27:00,
2013-05-12 04:30:00,73.9,71.2,30.03,NNW,329,0.0,0.0,91,0.00,,---,0.00,VWS V14.01,2013-05-12 08:30:00,
2013-05-12 04:31:00,73.9,71.2,30.03,NNW,329,0.0,0.0,91,0.00,,---,0.00,VWS V14.01,2013-05-12 08:31:00,
2013-05-12 04:32:00,73.9,71.2,30.03,NNW,329,0.0,0.0,91,0.00,,---,0.00,VWS V14.01,2013-05-12 08:32:00,
2013-05-12 04:35:00,73.9,71.2,30.03,NNW,329,0.0,0.0,91,0.00,,---,0.00,VWS V14.01,2013-05-12 08:35:00,
2013-05-12 04:36:00,73.9,71.2,30.03,NNW,329,0.0,0.0,91,0.00,,---,0.00,VWS V14.01,2013-05-12 08:36:00,
2013-05-12 04:37:00,73.9,71.2,30.03,NNW,329,0.0,0.0,91,0.00,,---,0.00,VWS V14.01,2013-05-12 08:37:00,
2013-05-12 04:40:00,73.9,71.2,30.03,NNW,328,0.0,0.0,91,0.00,,---,0.00,VWS V14.01,2013-05-12 08:40:00,
2013-05-12 04:41:00,73.9,71.2,30.03,NNW,328,0.0,0.0,91,0.00,,---,0.00,VWS V14.01,2013-05-12 08:41:00,
2013-05-12 04:42:00,73.9,71.2,30.03,NNW,328,0.0,0.0,91,0.00,,---,0.00,VWS V14.01,2013-05-12 08:42:00,
2013-05-12 04:45:00,73.9,71.2,30.03,NNW,328,0.0,0.0,91,0.00,,---,0.00,VWS V14.01,2013-05-12 08:45:00,
2013-05-12 04:46:00,73.9,71.2,30.03,NNW,328,0.0,0.0,91,0.00,,---,0.00,VWS V14.01,2013-05-12 08:46:00,
2013-05-12 04:47:00,73.9,71.2,30.03,NNW,328,0.0,0.0,91,0.00,,---,0.00,VWS V14.01,2013-05-12 08:47:00,
2013-05-12 04:51:00,73.9,71.2,30.03,NNW,328,0.0,0.0,91,0.00,,---,0.00,VWS V14.01,2013-05-12 08:51:00,
2013-05-12 04:52:00,73.9,71.2,30.03,NNW,328,0.0,0.0,91,0.00,,---,0.00,VWS V14.01,2013-05-12 08:52:00,
2013-05-12 04:53:00,73.9,71.2,30.03,NNW,328,0.0,0.0,91,0.00,,---,0.00,VWS V14.01,2013-05-12 08:53:00,
2013-05-12 04:56:00,73.9,71.2,30.03,NNW,328,0.0,0.0,91,0.00,,---,0.00,VWS V14.01,2013-05-12 08:56:00,
2013-05-12 04:57:00,73.9,71.2,30.03,NNW,328,0.0,0.0,91,0.00,,---,0.00,VWS V14.01,2013-05-12 08:57:00,
2013-05-12 04:58:00,73.9,71.2,30.03,NNW,328,0.0,0.0,91,0.00,,---,0.00,VWS V14.01,2013-05-12 08:58:00,
2013-05-12 05:01:00,73.9,71.2,30.03,NNW,328,0.0,0.0,91,0.00,,---,0.00,VWS V14.01,2013-05-12 09:01:00,
2013-05-12 05:02:00,73.9,71.2,30.03,NNW,328,0.0,0.0,91,0.00,,---,0.00,VWS V14.01,2013-05-12 09:02:00,
2013-05-12 05:03:00,73.9,71.2,30.03,NNW,328,0.0,0.0,91,0.00,,---,0.00,VWS V14.01,2013-05-12 09:03:00,
2013-05-12 05:06:00,73.9,71.2,30.03,NNW,328,0.0,0.0,91,0.00,,---,0.00,VWS V14.01,2013-05-12 09:06:00,
2013-05-12 05:07:00,73.9,71.2,30.03,NNW,328,0.0,0.0,91,0.00,,---,0.00,VWS V14.01,2013-05-12 09:07:00,
2013-05-12 05:08:00,73.9,71.2,30.03,NNW,328,0.0,0.0,91,0.00,,---,0.00,VWS V14.01,2013-05-12 09:08:00,
2013-05-12 05:11:00,73.9,71.2,30.03,NNW,328,0.0,0.0,91,0.00,,---,0.00,VWS V14.01,2013-05-12 09:11:00,
2013-05-12 05:12:00,73.9,71.2,30.03,NNW,328,0.0,0.0,91,0.00,,---,0.00,VWS V14.01,2013-05-12 09:12:00,
2013-05-12 05:13:00,73.9,71.2,30.03,NNW,328,0.0,0.0,91,0.00,,---,0.00,VWS V14.01,2013-05-12 09:13:00,
2013-05-12 05:16:00,73.9,71.2,30.03,NNW,328,0.0,0.0,91,0.00,,---,0.00,VWS V14.01,2013-05-12 09:16:00,
2013-05-12 05:17:00,73.9,71.2,30.03,NNW,328,0.0,0.0,91,0.00,,---,0.00,VWS V14.01,2013-05-12 09:17:00,
2013-05-12 05:18:00,73.9,71.2,30.03,NNW,328,0.0,0.0,91,0.00,,---,0.00,VWS V14.01,2013-05-12 09:18:00,
2013-05-12 05:21:00,73.9,71.2,30.03,NNW,328,0.0,0.0,91,0.00,,---,0.00,VWS V14.01,2013-05-12 09:21:00,
2013-05-12 05:22:00,73.9,71.2,30.03,NNW,328,0.0,0.0,91,0.00,,---,0.00,VWS V14.01,2013-05-12 09:22:00,
2013-05-12 05:23:00,73.9,71.2,30.03,NNW,328,0.0,0.0,91,0.00,,---,0.00,VWS V14.01,2013-05-12 09:23:00,
2013-05-12 05:26:00,73.9,71.2,30.03,NNW,328,0.0,0.0,91,0.00,,---,0.00,VWS V14.01,2013-05-12 09:26:00,
2013-05-12 05:27:00,73.9,71.2,30.03,NNW,328,0.0,0.0,91,0.00,,---,0.00,VWS V14.01,2013-05-12 09:27:00,
2013-05-12 05:28:00,73.9,71.2,30.03,NNW,328,0.0,0.0,91,0.00,,---,0.00,VWS V14.01,2013-05-12 09:28:00,
2013-05-12 05:29:00,73.9,71.2,30.03,NNW,328,0.0,0.0,91,0.00,,---,0.00,VWS V14.01,2013-05-12 09:29:00,
2013-05-12 05:31:00,73.9,71.2,30.03,NNW,328,0.0,0.0,91,0.00,,---,0.00,VWS V14.01,2013-05-12 09:31:00,
2013-05-12 05:32:00,73.9,71.2,30.03,NNW,328,0.0,0.0,91,0.00,,---,0.00,VWS V14.01,2013-05-12 09:32:00,
2013-05-12 05:33:00,73.9,71.2,30.03,NNW,328,0.0,0.0,91,0.00,,---,0.00,VWS V14.01,2013-05-12 09:33:00,
2013-05-12 05:34:00,73.9,71.2,30.03,NNW,328,0.0,0.0,91,0.00,,---,0.00,VWS V14.01,2013-05-12 09:34:00,
2013-05-12 05:36:00,73.9,71.2,30.03,NNW,328,0.0,0.0,91,0.00,,---,0.00,VWS V14.01,2013-05-12 09:36:00,
2013-05-12 05:37:00,73.9,71.2,30.03,NNW,328,0.0,0.0,91,0.00,,---,0.00,VWS V14.01,2013-05-12 09:37:00,
2013-05-12 05:38:00,73.9,71.2,30.03,NNW,328,0.0,0.0,91,0.00,,---,0.00,VWS V14.01,2013-05-12 09:38:00,
2013-05-12 05:39:00,73.9,71.2,30.03,NNW,328,0.0,0.0,91,0.00,,---,0.00,VWS V14.01,2013-05-12 09:39:00,
2013-05-12 05:41:00,73.9,71.2,30.03,NNW,328,0.0,0.0,91,0.00,,---,0.00,VWS V14.01,2013-05-12 09:41:00,
2013-05-12 05:42:00,73.9,71.2,30.03,NNW,328,0.0,0.0,91,0.00,,---,0.00,VWS V14.01,2013-05-12 09:42:00,
2013-05-12 05:43:00,73.9,71.2,30.03,NNW,328,0.0,0.0,91,0.00,,---,0.00,VWS V14.01,2013-05-12 09:43:00,
2013-05-12 05:44:00,73.9,71.2,30.03,NNW,328,0.0,0.0,91,0.00,,---,0.00,VWS V14.01,2013-05-12 09:44:00,
2013-05-12 05:47:00,73.9,71.2,30.03,NNW,328,0.0,0.0,91,0.00,,---,0.00,VWS V14.01,2013-05-12 09:47:00,
2013-05-12 05:48:00,73.9,71.2,30.03,NNW,328,0.0,0.0,91,0.00,,---,0.00,VWS V14.01,2013-05-12 09:48:00,
2013-05-12 05:49:00,73.9,71.2,30.03,NNW,328,0.0,0.0,91,0.00,,---,0.00,VWS V14.01,2013-05-12 09:49:00,
2013-05-12 05:52:00,73.9,71.2,30.03,NNW,328,0.0,0.0,91,0.00,,---,0.00,VWS V14.01,2013-05-12 09:52:00,
2013-05-12 05:53:00,73.9,71.2,30.03,NNW,328,0.0,0.0,91,0.00,,---,0.00,VWS V14.01,2013-05-12 09:53:00,
2013-05-12 05:54:00,73.9,71.2,30.03,NNW,328,0.0,0.0,91,0.00,,---,0.00,VWS V14.01,2013-05-12 09:54:00,
2013-05-12 05:57:00,73.9,71.2,30.03,NNW,328,0.0,0.0,91,0.00,,---,0.00,VWS V14.01,2013-05-12 09:57:00,
2013-05-12 05:58:00,73.9,71.2,30.03,NNW,328,0.0,0.0,91,0.00,,---,0.00,VWS V14.01,2013-05-12 09:58:00,
2013-05-12 05:59:00,73.9,71.2,30.03,NNW,328,0.0,0.0,91,0.00,,---,0.00,VWS V14.01,2013-05-12 09:59:00,
2013-05-12 06:03:00,73.9,71.2,30.03,NNW,328,0.0,0.0,91,0.00,,---,0.00,VWS V14.01,2013-05-12 10:03:00,
2013-05-12 06:04:00,73.9,71.2,30.03,NNW,328,0.0,0.0,91,0.00,,---,0.00,VWS V14.01,2013-05-12 10:04:00,
2013-05-12 06:05:00,73.9,71.2,30.03,NNW,328,0.0,0.0,91,0.00,,---,0.00,VWS V14.01,2013-05-12 10:05:00,
2013-05-12 06:08:00,73.9,71.2,30.03,NNW,328,0.0,0.0,91,0.00,,---,0.00,VWS V14.01,2013-05-12 10:08:00,
2013-05-12 06:09:00,73.9,71.2,30.03,NNW,328,0.0,0.0,91,0.00,,---,0.00,VWS V14.01,2013-05-12 10:09:00,
2013-05-12 06:10:00,73.9,71.2,30.03,NNW,328,0.0,0.0,91,0.00,,---,0.00,VWS V14.01,2013-05-12 10:10:00,
2013-05-12 06:13:00,73.9,71.2,30.03,NNW,328,0.0,0.0,91,0.00,,---,0.00,VWS V14.01,2013-05-12 10:13:00,
2013-05-12 06:14:00,73.9,71.2,30.03,NNW,328,0.0,0.0,91,0.00,,---,0.00,VWS V14.01,2013-05-12 10:14:00,
2013-05-12 06:15:00,73.9,71.2,30.03,NNW,328,0.0,0.0,91,0.00,,---,0.00,VWS V14.01,2013-05-12 10:15:00,
2013-05-12 06:18:00,73.9,71.2,30.03,NNW,328,0.0,0.0,91,0.00,,---,0.00,VWS V14.01,2013-05-12 10:18:00,
2013-05-12 06:19:00,73.9,71.2,30.03,NNW,328,0.0,0.0,91,0.00,,---,0.00,VWS V14.01,2013-05-12 10:19:00,
2013-05-12 06:20:00,73.9,71.2,30.03,NNW,328,0.0,0.0,91,0.00,,---,0.00,VWS V14.01,2013-05-12 10:20:00,
2013-05-12 06:23:00,73.9,71.2,30.03,NNW,328,0.0,0.0,91,0.00,,---,0.00,VWS V14.01,2013-05-12 10:23:00,
2013-05-12 06:24:00,73.9,71.2,30.03,NNW,328,0.0,0.0,91,0.00,,---,0.00,VWS V14.01,2013-05-12 10:24:00,
2013-05-12 06:25:00,73.9,71.2,30.03,NNW,328,0.0,0.0,91,0.00,,---,0.00,VWS V14.01,2013-05-12 10:25:00,
2013-05-12 06:28:00,73.9,71.2,30.03,NNW,328,0.0,0.0,91,0.00,,---,0.00,VWS V14.01,2013-05-12 10:28:00,
2013-05-12 06:29:00,73.9,71.2,30.03,NNW,328,0.0,0.0,91,0.00,,---,0.00,VWS V14.01,2013-05-12 10:29:00,
2013-05-12 06:30:00,73.9,71.2,30.03,NNW,328,0.0,0.0,91,0.00,,---,0.00,VWS V14.01,2013-05-12 10:30:00,
2013-05-12 06:33:00,73.9,71.2,30.03,NNW,328,0.0,0.0,91,0.00,,---,0.00,VWS V14.01,2013-05-12 10:33:00,
2013-05-12 06:34:00,73.9,71.2,30.03,NNW,328,0.0,0.0,91,0.00,,---,0.00,VWS V14.01,2013-05-12 10:34:00,
2013-05-12 06:35:00,73.9,71.2,30.03,NNW,328,0.0,0.0,91,0.00,,---,0.00,VWS V14.01,2013-05-12 10:35:00,
2013-05-12 06:38:00,73.9,71.2,30.03,NNW,328,0.0,0.0,91,0.00,,---,0.00,VWS V14.01,2013-05-12 10:38:00,
2013-05-12 06:39:00,73.9,71.2,30.03,NNW,328,0.0,0.0,91,0.00,,---,0.00,VWS V14.01,2013-05-12 10:39:00,
2013-05-12 06:40:00,73.9,71.2,30.03,NNW,328,0.0,0.0,91,0.00,,---,0.00,VWS V14.01,2013-05-12 10:40:00,
2013-05-12 06:43:00,73.9,71.2,30.03,NNW,328,0.0,0.0,91,0.00,,---,0.00,VWS V14.01,2013-05-12 10:43:00,
2013-05-12 06:44:00,73.9,71.2,30.03,NNW,328,0.0,0.0,91,0.00,,---,0.00,VWS V14.01,2013-05-12 10:44:00,
2013-05-12 06:45:00,73.9,71.2,30.03,NNW,328,0.0,0.0,91,0.00,,---,0.00,VWS V14.01,2013-05-12 10:45:00,
2013-05-12 06:49:00,73.9,71.2,30.03,NNW,328,0.0,0.0,91,0.00,,---,0.00,VWS V14.01,2013-05-12 10:49:00,
2013-05-12 06:50:00,73.9,71.2,30.03,NNW,328,0.0,0.0,91,0.00,,---,0.00,VWS V14.01,2013-05-12 10:50:00,
2013-05-12 06:54:00,73.9,71.2,30.03,NNW,328,0.0,0.0,91,0.00,,---,0.00,VWS V14.01,2013-05-12 10:54:00,
2013-05-12 06:55:00,73.9,71.2,30.03,NNW,328,0.0,0.0,91,0.00,,---,0.00,VWS V14.01,2013-05-12 10:55:00,
2013-05-12 06:56:00,73.9,71.2,30.03,NNW,328,0.0,0.0,91,0.00,,---,0.00,VWS V14.01,2013-05-12 10:56:00,
2013-05-12 06:59:00,73.9,71.2,30.03,NNW,328,0.0,0.0,91,0.00,,---,0.00,VWS V14.01,2013-05-12 10:59:00,
2013-05-12 07:00:00,73.9,71.2,30.03,NNW,328,0.0,0.0,91,0.00,,---,0.00,VWS V14.01,2013-05-12 11:00:00,
2013-05-12 07:01:00,73.9,71.2,30.03,NNW,328,0.0,0.0,91,0.00,,---,0.00,VWS V14.01,2013-05-12 11:01:00,
2013-05-12 07:04:00,73.9,71.2,30.03,NNW,328,0.0,0.0,91,0.00,,---,0.00,VWS V14.01,2013-05-12 11:04:00,
2013-05-12 07:05:00,73.9,71.2,30.03,NNW,328,0.0,0.0,91,0.00,,---,0.00,VWS V14.01,2013-05-12 11:05:00,
2013-05-12 07:06:00,73.9,71.2,30.03,NNW,328,0.0,0.0,91,0.00,,---,0.00,VWS V14.01,2013-05-12 11:06:00,
2013-05-12 07:09:00,73.9,71.2,30.03,NNW,328,0.0,0.0,91,0.00,,---,0.00,VWS V14.01,2013-05-12 11:09:00,
2013-05-12 07:10:00,73.9,71.2,30.03,NNW,328,0.0,0.0,91,0.00,,---,0.00,VWS V14.01,2013-05-12 11:10:00,
2013-05-12 07:11:00,73.9,71.2,30.03,NNW,328,0.0,0.0,91,0.00,,---,0.00,VWS V14.01,2013-05-12 11:11:00,
2013-05-12 07:14:00,73.9,71.2,30.03,NNW,328,0.0,0.0,91,0.00,,---,0.00,VWS V14.01,2013-05-12 11:14:00,
2013-05-12 07:15:00,73.9,71.2,30.03,NNW,328,0.0,0.0,91,0.00,,---,0.00,VWS V14.01,2013-05-12 11:15:00,
2013-05-12 07:16:00,73.9,71.2,30.03,NNW,329,0.0,0.0,91,0.00,,---,0.00,VWS V14.01,2013-05-12 11:16:00,
2013-05-12 07:19:00,73.9,71.2,30.03,NNW,328,0.0,0.0,91,0.00,,---,0.00,VWS V14.01,2013-05-12 11:19:00,
2013-05-12 07:20:00,73.9,71.2,30.03,NNW,328,0.0,0.0,91,0.00,,---,0.00,VWS V14.01,2013-05-12 11:20:00,
2013-05-12 07:21:00,73.9,71.2,30.03,NNW,328,0.0,0.0,91,0.00,,---,0.00,VWS V14.01,2013-05-12 11:21:00,
2013-05-12 07:24:00,73.9,71.2,30.03,NNW,328,0.0,0.0,91,0.00,,---,0.00,VWS V14.01,2013-05-12 11:24:00,
2013-05-12 07:25:00,73.9,71.2,30.03,NNW,328,0.0,0.0,91,0.00,,---,0.00,VWS V14.01,2013-05-12 11:25:00,
2013-05-12 07:26:00,73.9,71.2,30.03,NNW,328,0.0,0.0,91,0.00,,---,0.00,VWS V14.01,2013-05-12 11:26:00,
2013-05-12 07:29:00,73.9,71.2,30.03,NNW,328,0.0,0.0,91,0.00,,---,0.00,VWS V14.01,2013-05-12 11:29:00,
2013-05-12 07:30:00,73.9,71.2,30.03,NNW,328,0.0,0.0,91,0.00,,---,0.00,VWS V14.01,2013-05-12 11:30:00,
2013-05-12 07:31:00,73.9,71.2,30.03,NNW,328,0.0,0.0,91,0.00,,---,0.00,VWS V14.01,2013-05-12 11:31:00,
2013-05-12 07:35:00,73.9,71.2,30.03,NNW,328,0.0,0.0,91,0.00,,---,0.00,VWS V14.01,2013-05-12 11:35:00,
2013-05-12 07:36:00,73.9,71.2,30.03,NNW,328,0.0,0.0,91,0.00,,---,0.00,VWS V14.01,2013-05-12 11:36:00,
2013-05-12 07:40:00,73.9,71.2,30.03,NNW,328,0.0,0.0,91,0.00,,---,0.00,VWS V14.01,2013-05-12 11:40:00,
2013-05-12 07:41:00,73.9,71.2,30.03,NNW,328,0.0,0.0,91,0.00,,---,0.00,VWS V14.01,2013-05-12 11:41:00,
2013-05-12 07:45:00,73.9,71.2,30.03,NNW,328,0.0,0.0,91,0.00,,---,0.00,VWS V14.01,2013-05-12 11:45:00,
2013-05-12 07:46:00,73.9,71.2,30.03,NNW,328,0.0,0.0,91,0.00,,---,0.00,VWS V14.01,2013-05-12 11:46:00,
2013-05-12 07:50:00,73.9,71.2,30.03,NNW,329,0.0,0.0,91,0.00,,---,0.00,VWS V14.01,2013-05-12 11:50:00,
2013-05-12 07:51:00,73.9,71.2,30.03,NNW,329,0.0,0.0,91,0.00,,---,0.00,VWS V14.01,2013-05-12 11:51:00,
2013-05-12 07:55:00,73.9,71.2,30.03,NNW,329,0.0,0.0,91,0.00,,---,0.00,VWS V14.01,2013-05-12 11:55:00,
2013-05-12 07:56:00,73.9,71.2,30.03,NNW,329,0.0,0.0,91,0.00,,---,0.00,VWS V14.01,2013-05-12 11:56:00,
2013-05-12 07:57:00,73.9,71.2,30.03,NNW,329,0.0,0.0,91,0.00,,---,0.00,VWS V14.01,2013-05-12 11:57:00,
2013-05-12 08:00:00,73.9,71.2,30.03,NW,325,2.2,2.2,91,0.00,,---,0.00,VWS V14.01,2013-05-12 12:00:00,
2013-05-12 08:01:00,73.9,71.2,30.03,NW,325,2.2,2.2,91,0.00,,---,0.00,VWS V14.01,2013-05-12 12:01:00,
2013-05-12 08:02:00,73.9,71.2,30.03,NW,325,2.2,2.2,91,0.00,,---,0.00,VWS V14.01,2013-05-12 12:02:00,
2013-05-12 08:05:00,73.9,71.2,30.03,NW,325,2.2,2.2,91,0.00,,---,0.00,VWS V14.01,2013-05-12 12:05:00,
2013-05-12 08:06:00,73.9,71.2,30.06,NW,325,2.2,2.2,91,0.00,,---,0.00,VWS V14.01,2013-05-12 12:06:00,
2013-05-12 08:07:00,73.9,71.2,30.06,SSW,205,0.0,2.2,91,0.00,,---,0.00,VWS V14.01,2013-05-12 12:07:00,
2013-05-12 08:10:00,73.9,71.2,30.06,SSW,205,0.0,0.0,91,0.00,,---,0.00,VWS V14.01,2013-05-12 12:10:00,
2013-05-12 08:11:00,73.9,71.2,30.06,SSW,205,0.0,0.0,91,0.00,,---,0.00,VWS V14.01,2013-05-12 12:11:00,
2013-05-12 08:12:00,73.9,71.2,30.06,SSW,205,0.0,0.0,91,0.00,,---,0.00,VWS V14.01,2013-05-12 12:12:00,
2013-05-12 08:16:00,73.9,71.2,30.06,SSW,205,0.0,0.0,91,0.00,,---,0.00,VWS V14.01,2013-05-12 12:16:00,
2013-05-12 08:17:00,73.9,71.2,30.06,SSW,200,0.0,0.0,91,0.00,,---,0.00,VWS V14.01,2013-05-12 12:17:00,
2013-05-12 08:21:00,73.9,71.2,30.06,SSW,199,0.0,0.0,91,0.00,,---,0.00,VWS V14.01,2013-05-12 12:21:00,
2013-05-12 08:22:00,73.9,71.2,30.06,SSW,199,0.0,0.0,91,0.00,,---,0.00,VWS V14.01,2013-05-12 12:22:00,
2013-05-12 08:26:00,73.9,71.2,30.06,SSW,205,0.0,0.0,91,0.00,,---,0.00,VWS V14.01,2013-05-12 12:26:00,
2013-05-12 08:27:00,73.9,71.2,30.06,SSW,205,2.7,2.7,91,0.00,,---,0.00,VWS V14.01,2013-05-12 12:27:00,
2013-05-12 08:31:00,73.9,71.2,30.06,SSW,205,2.7,2.7,91,0.00,,---,0.00,VWS V14.01,2013-05-12 12:31:00,
2013-05-12 08:32:00,73.9,71.2,30.06,SSW,197,0.0,2.7,91,0.00,,---,0.00,VWS V14.01,2013-05-12 12:32:00,
2013-05-12 08:33:00,73.9,71.2,30.06,SSW,197,0.0,0.0,91,0.00,,---,0.00,VWS V14.01,2013-05-12 12:33:00,
2013-05-12 08:36:00,73.9,71.2,30.06,SSW,208,2.7,2.7,91,0.00,,---,0.00,VWS V14.01,2013-05-12 12:36:00,
2013-05-12 08:37:00,73.9,71.2,30.06,SSW,208,2.7,2.7,91,0.00,,---,0.00,VWS V14.01,2013-05-12 12:37:00,
2013-05-12 08:38:00,73.9,71.2,30.06,SSW,208,2.7,2.7,91,0.00,,---,0.00,VWS V14.01,2013-05-12 12:38:00,
2013-05-12 08:42:00,73.9,71.2,30.06,SSW,208,2.7,2.7,91,0.00,,---,0.00,VWS V14.01,2013-05-12 12:42:00,
2013-05-12 08:43:00,73.9,71.2,30.06,SW,218,4.0,4.0,91,0.00,,---,0.00,VWS V14.01,2013-05-12 12:43:00,
2013-05-12 08:47:00,73.9,71.2,30.06,SSE,156,2.7,2.7,91,0.00,,---,0.00,VWS V14.01,2013-05-12 12:47:00,
2013-05-12 08:48:00,73.9,71.2,30.06,SSE,156,2.7,2.7,91,0.00,,---,0.00,VWS V14.01,2013-05-12 12:48:00,
2013-05-12 08:52:00,73.9,71.2,30.06,SSE,156,2.7,2.7,91,0.00,,---,0.00,VWS V14.01,2013-05-12 12:52:00,
2013-05-12 08:53:00,73.9,71.2,30.06,SSE,156,2.7,2.7,91,0.00,,---,0.00,VWS V14.01,2013-05-12 12:53:00,
2013-05-12 08:54:00,73.9,71.2,30.06,SSW,204,2.2,3.6,91,0.00,,---,0.00,VWS V14.01,2013-05-12 12:54:00,
2013-05-12 08:57:00,73.9,71.2,30.06,SSW,204,2.7,2.7,91,0.00,,---,0.00,VWS V14.01,2013-05-12 12:57:00,
2013-05-12 08:58:00,73.9,71.2,30.06,SSW,204,2.7,2.7,91,0.00,,---,0.00,VWS V14.01,2013-05-12 12:58:00,
2013-05-12 08:59:00,73.9,71.2,30.06,SSW,204,2.7,2.7,91,0.00,,---,0.00,VWS V14.01,2013-05-12 12:59:00,
2013-05-12 09:02:00,73.9,71.2,30.06,SSW,204,2.7,2.7,91,0.00,,---,0.00,VWS V14.01,2013-05-12 13:02:00,
2013-05-12 09:03:00,73.9,71.2,30.06,SSW,208,0.0,2.7,91,0.00,,---,0.00,VWS V14.01,2013-05-12 13:03:00,
2013-05-12 09:04:00,73.9,71.2,30.06,SSW,208,0.0,0.0,91,0.00,,---,0.00,VWS V14.01,2013-05-12 13:04:00,
2013-05-12 09:07:00,73.9,71.2,30.06,SSW,203,2.7,2.7,91,0.00,,---,0.00,VWS V14.01,2013-05-12 13:07:00,
2013-05-12 09:08:00,73.9,71.2,30.06,SSW,203,2.7,2.7,91,0.00,,---,0.00,VWS V14.01,2013-05-12 13:08:00,
2013-05-12 09:09:00,73.9,71.2,30.06,SSW,203,2.7,2.7,91,0.00,,---,0.00,VWS V14.01,2013-05-12 13:09:00,
2013-05-12 09:13:00,73.9,71.2,30.06,SSW,205,4.0,4.0,91,0.00,,---,0.00,VWS V14.01,2013-05-12 13:13:00,
2013-05-12 09:14:00,73.9,71.2,30.06,SW,220,2.7,4.0,91,0.00,,---,0.00,VWS V14.01,2013-05-12 13:14:00,
2013-05-12 09:18:00,73.9,71.2,30.06,SW,220,3.1,3.1,91,0.00,,---,0.00,VWS V14.01,2013-05-12 13:18:00,
2013-05-12 09:19:00,73.9,71.2,30.06,SW,220,3.1,3.1,91,0.00,,---,0.00,VWS V14.01,2013-05-12 13:19:00,
2013-05-12 09:23:00,73.9,71.2,30.06,SSW,210,2.2,2.2,91,0.00,,---,0.00,VWS V14.01,2013-05-12 13:23:00,
2013-05-12 09:24:00,73.9,71.2,30.06,SSW,208,0.0,0.0,91,0.00,,---,0.00,VWS V14.01,2013-05-12 13:24:00,
2013-05-12 09:28:00,73.9,71.2,30.06,SSW,205,3.1,3.1,91,0.00,,---,0.00,VWS V14.01,2013-05-12 13:28:00,
2013-05-12 09:29:00,73.9,71.2,30.06,SSW,205,3.1,3.1,91,0.00,,---,0.00,VWS V14.01,2013-05-12 13:29:00,
2013-05-12 09:33:00,73.9,71.2,30.06,SSW,196,2.7,2.7,91,0.00,,---,0.00,VWS V14.01,2013-05-12 13:33:00,
2013-05-12 09:34:00,73.9,71.2,30.06,SSW,196,2.7,2.7,91,0.00,,---,0.00,VWS V14.01,2013-05-12 13:34:00,
2013-05-12 09:35:00,73.9,71.2,30.06,SSW,196,2.7,2.7,91,0.00,,---,0.00,VWS V14.01,2013-05-12 13:35:00,
2013-05-12 09:38:00,73.9,71.2,30.06,SSW,199,3.6,3.6,91,0.00,,---,0.00,VWS V14.01,2013-05-12 13:38:00,
2013-05-12 09:39:00,73.9,71.2,30.06,SSW,197,3.1,3.1,91,0.00,,---,0.00,VWS V14.01,2013-05-12 13:39:00,
2013-05-12 09:40:00,73.9,71.2,30.06,SSW,197,3.1,3.1,91,0.00,,---,0.00,VWS V14.01,2013-05-12 13:40:00,
2013-05-12 09:43:00,73.9,71.2,30.06,SSW,208,2.7,2.7,91,0.00,,---,0.00,VWS V14.01,2013-05-12 13:43:00,
2013-05-12 09:44:00,73.9,71.2,30.06,SSW,208,2.7,2.7,91,0.00,,---,0.00,VWS V14.01,2013-05-12 13:44:00,
2013-05-12 09:45:00,73.9,71.2,30.06,SSW,208,2.7,2.7,91,0.00,,---,0.00,VWS V14.01,2013-05-12 13:45:00,
2013-05-12 09:48:00,73.9,71.2,30.06,SSW,206,4.0,4.0,91,0.00,,---,0.00,VWS V14.01,2013-05-12 13:48:00,
2013-05-12 09:49:00,73.9,71.2,30.06,SSW,206,4.0,4.0,91,0.00,,---,0.00,VWS V14.01,2013-05-12 13:49:00,
2013-05-12 09:50:00,73.9,71.2,30.06,SSW,206,4.0,4.0,91,0.00,,---,0.00,VWS V14.01,2013-05-12 13:50:00,
2013-05-12 09:53:00,73.9,71.2,30.06,SSW,206,4.0,4.0,91,0.00,,---,0.00,VWS V14.01,2013-05-12 13:53:00,
2013-05-12 09:54:00,73.9,71.2,30.06,SSW,206,4.0,4.0,91,0.00,,---,0.00,VWS V14.01,2013-05-12 13:54:00,
2013-05-12 09:55:00,73.9,71.2,30.06,SSW,206,4.0,4.0,91,0.00,,---,0.00,VWS V14.01,2013-05-12 13:55:00,
2013-05-12 09:58:00,73.9,71.2,30.06,SSW,211,2.7,2.7,91,0.00,,---,0.00,VWS V14.01,2013-05-12 13:58:00,
2013-05-12 09:59:00,73.9,71.2,30.06,SSW,211,2.7,2.7,91,0.00,,---,0.00,VWS V14.01,2013-05-12 13:59:00,
2013-05-12 10:00:00,73.9,71.2,30.06,South,186,2.7,2.7,91,0.00,,---,0.00,VWS V14.01,2013-05-12 14:00:00,
2013-05-12 10:01:00,73.9,71.2,30.06,South,186,2.7,2.7,91,0.00,,---,0.00,VWS V14.01,2013-05-12 14:01:00,
2013-05-12 10:03:00,81.5,73.2,30.06,South,182,3.6,3.6,76,0.00,,---,0.00,VWS V14.01,2013-05-12 14:03:00,
2013-05-12 10:04:00,81.5,73.2,30.06,South,182,3.6,3.6,76,0.00,,---,0.00,VWS V14.01,2013-05-12 14:04:00,
2013-05-12 10:05:00,81.5,73.2,30.06,South,182,3.6,3.6,76,0.00,,---,0.00,VWS V14.01,2013-05-12 14:05:00,
2013-05-12 10:06:00,81.5,73.2,30.06,South,182,3.6,3.6,76,0.00,,---,0.00,VWS V14.01,2013-05-12 14:06:00,
2013-05-12 10:08:00,81.5,73.2,30.06,SSW,201,3.1,3.1,76,0.00,,---,0.00,VWS V14.01,2013-05-12 14:08:00,
2013-05-12 10:09:00,81.5,73.2,30.06,SSW,201,3.1,3.1,76,0.00,,---,0.00,VWS V14.01,2013-05-12 14:09:00,
2013-05-12 10:10:00,81.5,73.2,30.06,SSW,201,3.1,3.1,76,0.00,,---,0.00,VWS V14.01,2013-05-12 14:10:00,
2013-05-12 10:11:00,81.5,73.2,30.06,SSW,201,3.1,3.1,76,0.00,,---,0.00,VWS V14.01,2013-05-12 14:11:00,
2013-05-12 10:14:00,81.5,73.2,30.06,SSW,201,3.1,3.1,76,0.00,,---,0.00,VWS V14.01,2013-05-12 14:14:00,
2013-05-12 10:15:00,81.5,73.2,30.06,SSW,201,3.1,3.1,76,0.00,,---,0.00,VWS V14.01,2013-05-12 14:15:00,
2013-05-12 10:16:00,81.5,73.2,30.06,SSW,198,3.1,3.1,76,0.00,,---,0.00,VWS V14.01,2013-05-12 14:16:00,
2013-05-12 10:19:00,81.5,73.2,30.06,SSW,198,3.1,3.1,76,0.00,,---,0.00,VWS V14.01,2013-05-12 14:19:00,
2013-05-12 10:20:00,81.5,73.2,30.06,SSW,198,3.1,3.1,76,0.00,,---,0.00,VWS V14.01,2013-05-12 14:20:00,
2013-05-12 10:21:00,81.5,73.2,30.06,SSW,198,3.1,3.1,76,0.00,,---,0.00,VWS V14.01,2013-05-12 14:21:00,
2013-05-12 10:22:00,81.5,73.2,30.06,SSW,193,4.5,4.5,76,0.00,,---,0.00,VWS V14.01,2013-05-12 14:22:00,
2013-05-12 10:24:00,81.5,73.2,30.06,SSW,193,4.5,4.5,76,0.00,,---,0.00,VWS V14.01,2013-05-12 14:24:00,
2013-05-12 10:25:00,81.5,73.2,30.06,SSW,193,4.5,4.5,76,0.00,,---,0.00,VWS V14.01,2013-05-12 14:25:00,
2013-05-12 10:26:00,81.5,73.2,30.06,SSW,193,4.5,4.5,76,0.00,,---,0.00,VWS V14.01,2013-05-12 14:26:00,
2013-05-12 10:27:00,81.5,73.2,30.06,SSW,193,4.5,4.5,76,0.00,,---,0.00,VWS V14.01,2013-05-12 14:27:00,
2013-05-12 10:29:00,81.5,73.2,30.06,SSW,193,4.5,4.5,76,0.00,,---,0.00,VWS V14.01,2013-05-12 14:29:00,
2013-05-12 10:30:00,81.5,73.2,30.06,SSW,193,4.5,4.5,76,0.00,,---,0.00,VWS V14.01,2013-05-12 14:30:00,
2013-05-12 10:31:00,81.5,73.2,30.06,SSW,193,4.5,4.5,76,0.00,,---,0.00,VWS V14.01,2013-05-12 14:31:00,
2013-05-12 10:33:00,81.5,73.2,30.06,SSW,193,4.5,4.5,76,0.00,,---,0.00,VWS V14.01,2013-05-12 14:33:00,
2013-05-12 10:34:00,81.5,73.2,30.06,SSW,204,3.6,3.6,76,0.00,,---,0.00,VWS V14.01,2013-05-12 14:34:00,
2013-05-12 10:35:00,81.5,73.2,30.06,SSW,204,3.6,3.6,76,0.00,,---,0.00,VWS V14.01,2013-05-12 14:35:00,
2013-05-12 10:36:00,81.5,73.2,30.06,SSW,204,3.6,3.6,76,0.00,,---,0.00,VWS V14.01,2013-05-12 14:36:00,
2013-05-12 10:38:00,81.5,73.2,30.06,SSW,206,0.0,3.6,76,0.00,,---,0.00,VWS V14.01,2013-05-12 14:38:00,
2013-05-12 10:39:00,81.5,73.2,30.06,SSW,206,0.0,0.0,76,0.00,,---,0.00,VWS V14.01,2013-05-12 14:39:00,
2013-05-12 10:40:00,81.5,73.2,30.06,SSW,206,0.0,0.0,76,0.00,,---,0.00,VWS V14.01,2013-05-12 14:40:00,
2013-05-12 10:41:00,81.5,73.2,30.06,SSW,206,0.0,0.0,76,0.00,,---,0.00,VWS V14.01,2013-05-12 14:41:00,
2013-05-12 10:43:00,81.5,73.2,30.09,SSW,207,0.0,2.2,76,0.00,,---,0.00,VWS V14.01,2013-05-12 14:43:00,
2013-05-12 10:44:00,81.5,73.2,30.09,SSW,207,0.0,0.0,76,0.00,,---,0.00,VWS V14.01,2013-05-12 14:44:00,
2013-05-12 10:45:00,81.5,73.2,30.09,SSW,207,0.0,0.0,76,0.00,,---,0.00,VWS V14.01,2013-05-12 14:45:00,
2013-05-12 10:46:00,81.5,73.2,30.09,SSW,207,0.0,0.0,76,0.00,,---,0.00,VWS V14.01,2013-05-12 14:46:00,
2013-05-12 10:48:00,81.5,73.2,30.09,SSW,198,2.7,2.7,76,0.00,,---,0.00,VWS V14.01,2013-05-12 14:48:00,
2013-05-12 10:49:00,81.5,73.2,30.09,SSW,198,2.7,2.7,76,0.00,,---,0.00,VWS V14.01,2013-05-12 14:49:00,
2013-05-12 10:50:00,81.5,73.2,30.09,SSW,198,2.7,2.7,76,0.00,,---,0.00,VWS V14.01,2013-05-12 14:50:00,
2013-05-12 10:51:00,81.5,73.2,30.09,SSW,198,2.7,2.7,76,0.00,,---,0.00,VWS V14.01,2013-05-12 14:51:00,
2013-05-12 10:52:00,81.5,73.2,30.09,SSW,206,4.0,4.0,76,0.00,,---,0.00,VWS V14.01,2013-05-12 14:52:00,
2013-05-12 10:53:00,81.5,73.2,30.09,SSW,206,4.0,4.0,76,0.00,,---,0.00,VWS V14.01,2013-05-12 14:53:00,
2013-05-12 10:54:00,81.5,73.2,30.09,SSW,207,2.7,4.0,76,0.00,,---,0.00,VWS V14.01,2013-05-12 14:54:00,
2013-05-12 10:55:00,81.5,73.2,30.09,SSW,207,2.7,2.7,76,0.00,,---,0.00,VWS V14.01,2013-05-12 14:55:00,
2013-05-12 10:56:00,81.5,73.2,30.09,SSW,207,2.7,2.7,76,0.00,,---,0.00,VWS V14.01,2013-05-12 14:56:00,
2013-05-12 10:57:00,81.5,73.2,30.09,SSW,207,2.7,2.7,76,0.00,,---,0.00,VWS V14.01,2013-05-12 14:57:00,
2013-05-12 10:58:00,81.5,73.2,30.09,South,171,3.1,3.1,76,0.00,,---,0.00,VWS V14.01,2013-05-12 14:58:00,
2013-05-12 11:00:00,81.5,73.2,30.09,South,171,3.1,3.1,76,0.00,,---,0.00,VWS V14.01,2013-05-12 15:00:00,
2013-05-12 11:01:00,81.5,73.2,30.09,SSW,202,0.0,3.1,76,0.00,,---,0.00,VWS V14.01,2013-05-12 15:01:00,
2013-05-12 11:02:00,81.5,73.2,30.09,SSW,202,0.0,0.0,76,0.00,,---,0.00,VWS V14.01,2013-05-12 15:02:00,
2013-05-12 11:03:00,81.5,73.2,30.06,SSW,202,0.0,0.0,76,0.00,,---,0.00,VWS V14.01,2013-05-12 15:03:00,
2013-05-12 11:05:00,81.5,73.2,30.06,South,191,2.7,2.7,76,0.00,,---,0.00,VWS V14.01,2013-05-12 15:05:00,
2013-05-12 11:06:00,81.5,73.2,30.06,South,191,2.7,2.7,76,0.00,,---,0.00,VWS V14.01,2013-05-12 15:06:00,
2013-05-12 11:07:00,81.5,73.2,30.06,South,191,2.7,2.7,76,0.00,,---,0.00,VWS V14.01,2013-05-12 15:07:00,
2013-05-12 11:08:00,81.5,73.2,30.06,South,183,3.6,3.6,76,0.00,,---,0.00,VWS V14.01,2013-05-12 15:08:00,
2013-05-12 11:10:00,81.5,73.2,30.06,South,183,3.6,3.6,76,0.00,,---,0.00,VWS V14.01,2013-05-12 15:10:00,
2013-05-12 11:11:00,81.5,73.2,30.06,South,183,3.6,3.6,76,0.00,,---,0.00,VWS V14.01,2013-05-12 15:11:00,
2013-05-12 11:12:00,81.5,73.2,30.06,South,183,3.6,3.6,76,0.00,,---,0.00,VWS V14.01,2013-05-12 15:12:00,
2013-05-12 11:13:00,81.5,73.2,30.06,South,183,3.6,3.6,76,0.00,,---,0.00,VWS V14.01,2013-05-12 15:13:00,
2013-05-12 11:16:00,81.5,73.2,30.06,South,183,3.6,3.6,76,0.00,,---,0.00,VWS V14.01,2013-05-12 15:16:00,
2013-05-12 11:17:00,81.5,73.2,30.06,SSW,208,3.1,3.6,76,0.00,,---,0.00,VWS V14.01,2013-05-12 15:17:00,
2013-05-12 11:19:00,81.5,73.2,30.06,NW,311,2.7,3.1,76,0.00,,---,0.00,VWS V14.01,2013-05-12 15:19:00,
2013-05-12 11:20:00,81.5,73.2,30.06,SSW,193,3.1,3.1,76,0.00,,---,0.00,VWS V14.01,2013-05-12 15:20:00,
2013-05-12 11:21:00,81.5,73.2,30.06,SSW,193,3.1,3.1,76,0.00,,---,0.00,VWS V14.01,2013-05-12 15:21:00,
2013-05-12 11:22:00,81.5,73.2,30.06,SSW,193,3.1,3.1,76,0.00,,---,0.00,VWS V14.01,2013-05-12 15:22:00,
2013-05-12 11:24:00,81.5,73.2,30.09,SSW,193,3.1,3.1,76,0.00,,---,0.00,VWS V14.01,2013-05-12 15:24:00,
2013-05-12 11:26:00,81.5,73.2,30.09,SSW,193,3.1,3.1,76,0.00,,---,0.00,VWS V14.01,2013-05-12 15:26:00,
2013-05-12 11:27:00,81.5,73.2,30.09,SSW,193,3.1,3.1,76,0.00,,---,0.00,VWS V14.01,2013-05-12 15:27:00,
2013-05-12 11:29:00,81.5,73.2,30.09,West,281,2.7,2.7,76,0.00,,---,0.00,VWS V14.01,2013-05-12 15:29:00,
2013-05-12 11:31:00,81.5,73.2,30.09,West,281,2.7,2.7,76,0.00,,---,0.00,VWS V14.01,2013-05-12 15:31:00,
2013-05-12 11:32:00,81.5,73.2,30.09,West,281,2.7,2.7,76,0.00,,---,0.00,VWS V14.01,2013-05-12 15:32:00,
2013-05-12 11:34:00,81.5,73.2,30.09,West,281,2.7,2.7,76,0.00,,---,0.00,VWS V14.01,2013-05-12 15:34:00,
2013-05-12 11:36:00,81.5,73.2,30.09,West,281,2.7,2.7,76,0.00,,---,0.00,VWS V14.01,2013-05-12 15:36:00,
2013-05-12 11:37:00,81.5,73.2,30.09,West,281,2.7,2.7,76,0.00,,---,0.00,VWS V14.01,2013-05-12 15:37:00,
2013-05-12 11:39:00,81.5,73.2,30.09,WNW,298,4.0,4.0,76,0.00,,---,0.00,VWS V14.01,2013-05-12 15:39:00,
2013-05-12 11:41:00,81.5,73.2,30.09,WNW,298,4.0,4.0,76,0.00,,---,0.00,VWS V14.01,2013-05-12 15:41:00,
2013-05-12 11:42:00,81.5,73.2,30.09,WNW,298,4.0,4.0,76,0.00,,---,0.00,VWS V14.01,2013-05-12 15:42:00,
2013-05-12 11:44:00,81.5,73.2,30.09,WNW,298,4.0,4.0,76,0.00,,---,0.00,VWS V14.01,2013-05-12 15:44:00,
2013-05-12 11:46:00,81.5,73.2,30.09,WNW,298,4.0,4.0,76,0.00,,---,0.00,VWS V14.01,2013-05-12 15:46:00,
2013-05-12 11:47:00,81.5,73.2,30.09,South,188,3.1,3.1,76,0.00,,---,0.00,VWS V14.01,2013-05-12 15:47:00,
2013-05-12 11:49:00,81.5,73.2,30.09,SSW,210,3.1,3.1,76,0.00,,---,0.00,VWS V14.01,2013-05-12 15:49:00,
2013-05-12 11:51:00,81.5,73.2,30.06,SSW,201,0.0,0.0,76,0.00,,---,0.00,VWS V14.01,2013-05-12 15:51:00,
2013-05-12 11:52:00,81.5,73.2,30.06,SSW,201,0.0,0.0,76,0.00,,---,0.00,VWS V14.01,2013-05-12 15:52:00,
2013-05-12 11:54:00,81.5,73.2,30.06,SSW,201,0.0,0.0,76,0.00,,---,0.00,VWS V14.01,2013-05-12 15:54:00,
2013-05-12 11:57:00,81.5,73.2,30.06,SSW,193,3.6,3.6,76,0.00,,---,0.00,VWS V14.01,2013-05-12 15:57:00,
2013-05-12 11:58:00,81.5,73.2,30.06,SSW,202,2.2,3.6,76,0.00,,---,0.00,VWS V14.01,2013-05-12 15:58:00,
2013-05-12 11:59:00,81.5,73.2,30.06,SSW,202,2.2,2.2,76,0.00,,---,0.00,VWS V14.01,2013-05-12 15:59:00,
2013-05-12 12:02:00,81.5,73.2,30.06,WNW,298,0.0,0.0,76,0.00,,---,0.00,VWS V14.01,2013-05-12 16:02:00,
2013-05-12 12:03:00,81.5,73.2,30.06,WNW,298,0.0,0.0,76,0.00,,---,0.00,VWS V14.01,2013-05-12 16:03:00,
2013-05-12 12:04:00,81.5,73.2,30.06,WNW,298,0.0,0.0,76,0.00,,---,0.00,VWS V14.01,2013-05-12 16:04:00,
2013-05-12 12:07:00,81.5,73.2,30.06,NNW,345,3.1,3.1,76,0.00,,---,0.00,VWS V14.01,2013-05-12 16:07:00,
2013-05-12 12:08:00,81.5,73.2,30.06,NNW,345,3.1,3.1,76,0.00,,---,0.00,VWS V14.01,2013-05-12 16:08:00,
2013-05-12 12:09:00,81.5,73.2,30.06,NNW,345,3.1,3.1,76,0.00,,---,0.00,VWS V14.01,2013-05-12 16:09:00,
2013-05-12 12:12:00,81.5,73.2,30.06,NW,320,0.0,0.0,76,0.00,,---,0.00,VWS V14.01,2013-05-12 16:12:00,
2013-05-12 12:13:00,81.5,73.2,30.06,NW,320,0.0,0.0,76,0.00,,---,0.00,VWS V14.01,2013-05-12 16:13:00,
2013-05-12 12:14:00,81.5,73.2,30.06,NW,320,0.0,0.0,76,0.00,,---,0.00,VWS V14.01,2013-05-12 16:14:00,
2013-05-12 12:17:00,81.5,73.2,30.06,WSW,240,4.0,4.0,76,0.00,,---,0.00,VWS V14.01,2013-05-12 16:17:00,
2013-05-12 12:18:00,81.5,73.2,30.06,WSW,240,4.0,4.0,76,0.00,,---,0.00,VWS V14.01,2013-05-12 16:18:00,
2013-05-12 12:19:00,81.5,73.2,30.06,WSW,240,4.0,4.0,76,0.00,,---,0.00,VWS V14.01,2013-05-12 16:19:00,
2013-05-12 12:22:00,81.5,73.2,30.06,South,175,2.7,4.0,76,0.00,,---,0.00,VWS V14.01,2013-05-12 16:22:00,
2013-05-12 12:23:00,81.5,73.2,30.06,South,175,2.7,2.7,76,0.00,,---,0.00,VWS V14.01,2013-05-12 16:23:00,
2013-05-12 12:24:00,81.5,73.2,30.06,South,175,2.7,2.7,76,0.00,,---,0.00,VWS V14.01,2013-05-12 16:24:00,
2013-05-12 12:25:00,81.5,73.2,30.06,South,175,2.7,2.7,76,0.00,,---,0.00,VWS V14.01,2013-05-12 16:25:00,
2013-05-12 12:28:00,81.5,73.2,30.06,South,175,0.0,0.0,76,0.00,,---,0.00,VWS V14.01,2013-05-12 16:28:00,
2013-05-12 12:29:00,81.5,73.2,30.06,South,175,0.0,0.0,76,0.00,,---,0.00,VWS V14.01,2013-05-12 16:29:00,
2013-05-12 12:30:00,81.5,73.2,30.06,South,175,0.0,0.0,76,0.00,,---,0.00,VWS V14.01,2013-05-12 16:30:00,
2013-05-12 12:33:00,81.5,73.2,30.06,South,175,0.0,0.0,76,0.00,,---,0.00,VWS V14.01,2013-05-12 16:33:00,
2013-05-12 12:35:00,81.5,73.2,30.06,SSW,206,0.0,0.0,76,0.00,,---,0.00,VWS V14.01,2013-05-12 16:35:00,
2013-05-12 12:38:00,81.5,73.2,30.06,SSW,197,5.4,5.4,76,0.00,,---,0.00,VWS V14.01,2013-05-12 16:38:00,
2013-05-12 12:40:00,81.5,73.2,30.06,SSW,197,5.4,5.4,76,0.00,,---,0.00,VWS V14.01,2013-05-12 16:40:00,
2013-05-12 12:41:00,81.5,73.2,30.06,SSW,205,2.7,5.4,76,0.00,,---,0.00,VWS V14.01,2013-05-12 16:41:00,
2013-05-12 12:43:00,81.5,73.2,30.06,SSW,205,2.7,2.7,76,0.00,,---,0.00,VWS V14.01,2013-05-12 16:43:00,
2013-05-12 12:44:00,81.5,73.2,30.06,SSW,205,2.7,2.7,76,0.00,,---,0.00,VWS V14.01,2013-05-12 16:44:00,
2013-05-12 12:45:00,81.5,73.2,30.06,SSW,211,2.2,2.2,76,0.00,,---,0.00,VWS V14.01,2013-05-12 16:45:00,
2013-05-12 12:46:00,81.5,73.2,30.06,SSW,211,2.2,2.2,76,0.00,,---,0.00,VWS V14.01,2013-05-12 16:46:00,
2013-05-12 12:48:00,81.5,73.2,30.06,SSW,211,2.2,2.2,76,0.00,,---,0.00,VWS V14.01,2013-05-12 16:48:00,
2013-05-12 12:49:00,81.5,73.2,30.06,SSW,211,2.2,2.2,76,0.00,,---,0.00,VWS V14.01,2013-05-12 16:49:00,
2013-05-12 12:50:00,81.5,73.2,30.06,SSW,211,2.2,2.2,76,0.00,,---,0.00,VWS V14.01,2013-05-12 16:50:00,
2013-05-12 12:51:00,81.5,73.2,30.06,SSW,211,2.2,2.2,76,0.00,,---,0.00,VWS V14.01,2013-05-12 16:51:00,
2013-05-12 12:53:00,81.5,73.2,30.06,SSW,211,2.2,2.2,76,0.00,,---,0.00,VWS V14.01,2013-05-12 16:53:00,
2013-05-12 12:54:00,81.5,73.2,30.06,SSW,211,2.2,2.2,76,0.00,,---,0.00,VWS V14.01,2013-05-12 16:54:00,
2013-05-12 12:55:00,81.5,73.2,30.06,SSW,212,0.0,0.0,76,0.00,,---,0.00,VWS V14.01,2013-05-12 16:55:00,
2013-05-12 12:56:00,81.5,73.2,30.06,SSW,212,0.0,0.0,76,0.00,,---,0.00,VWS V14.01,2013-05-12 16:56:00,
2013-05-12 12:58:00,81.5,73.2,30.06,SSW,212,0.0,0.0,76,0.00,,---,0.00,VWS V14.01,2013-05-12 16:58:00,
2013-05-12 12:59:00,81.5,73.2,30.06,SSW,212,0.0,0.0,76,0.00,,---,0.00,VWS V14.01,2013-05-12 16:59:00,
2013-05-12 13:00:00,81.5,73.2,30.06,SSW,212,0.0,0.0,76,0.00,,---,0.00,VWS V14.01,2013-05-12 17:00:00,
2013-05-12 13:01:00,81.5,73.2,30.06,SSW,212,0.0,0.0,76,0.00,,---,0.00,VWS V14.01,2013-05-12 17:01:00,
2013-05-12 13:03:00,81.5,73.2,30.06,SSW,212,0.0,0.0,76,0.00,,---,0.00,VWS V14.01,2013-05-12 17:03:00,
2013-05-12 13:04:00,81.5,73.2,30.06,SSW,212,0.0,0.0,76,0.00,,---,0.00,VWS V14.01,2013-05-12 17:04:00,
2013-05-12 13:05:00,81.5,73.2,30.06,SSW,212,0.0,0.0,76,0.00,,---,0.00,VWS V14.01,2013-05-12 17:05:00,
2013-05-12 13:06:00,88.3,70.7,30.06,SSW,212,0.0,0.0,56,0.00,,---,0.00,VWS V14.01,2013-05-12 17:06:00,
2013-05-12 13:09:00,88.3,70.7,30.06,SSW,212,0.0,0.0,56,0.00,,---,0.00,VWS V14.01,2013-05-12 17:09:00,
2013-05-12 13:10:00,88.3,70.7,30.06,SSW,212,0.0,0.0,56,0.00,,---,0.00,VWS V14.01,2013-05-12 17:10:00,
2013-05-12 13:11:00,88.3,70.7,30.06,SSW,212,0.0,0.0,56,0.00,,---,0.00,VWS V14.01,2013-05-12 17:11:00,
2013-05-12 13:14:00,88.3,70.7,30.06,SSW,196,0.0,0.0,56,0.00,,---,0.00,VWS V14.01,2013-05-12 17:14:00,
2013-05-12 13:15:00,88.3,70.7,30.06,SSW,196,0.0,0.0,56,0.00,,---,0.00,VWS V14.01,2013-05-12 17:15:00,
2013-05-12 13:16:00,88.3,70.7,30.06,SSW,196,3.6,3.6,56,0.00,,---,0.00,VWS V14.01,2013-05-12 17:16:00,
2013-05-12 13:19:00,88.3,70.7,30.06,SSW,196,3.6,3.6,56,0.00,,---,0.00,VWS V14.01,2013-05-12 17:19:00,
2013-05-12 13:21:00,88.3,70.7,30.06,SSW,206,2.7,3.6,56,0.00,,---,0.00,VWS V14.01,2013-05-12 17:21:00,
2013-05-12 13:24:00,88.3,70.7,30.06,SSW,206,2.7,2.7,56,0.00,,---,0.00,VWS V14.01,2013-05-12 17:24:00,
2013-05-12 13:26:00,88.3,70.7,30.06,SSW,202,4.0,4.0,56,0.00,,---,0.00,VWS V14.01,2013-05-12 17:26:00,
2013-05-12 13:29:00,88.3,70.7,30.06,SSW,202,4.0,4.0,56,0.00,,---,0.00,VWS V14.01,2013-05-12 17:29:00,
2013-05-12 13:30:00,88.3,70.7,30.06,SSE,161,2.7,2.7,56,0.00,,---,0.00,VWS V14.01,2013-05-12 17:30:00,
2013-05-12 13:31:00,89.6,72.9,30.03,SSE,161,2.7,2.7,58,0.00,,---,0.00,VWS V14.01,2013-05-12 17:31:00,
2013-05-12 13:32:00,89.6,72.9,30.03,SSE,161,2.7,2.7,58,0.00,,---,0.00,VWS V14.01,2013-05-12 17:32:00,
2013-05-12 13:34:00,89.6,72.9,30.03,South,176,4.0,4.0,58,0.00,,---,0.00,VWS V14.01,2013-05-12 17:34:00,
2013-05-12 13:35:00,89.6,72.9,30.03,South,176,4.0,4.0,58,0.00,,---,0.00,VWS V14.01,2013-05-12 17:35:00,
2013-05-12 13:36:00,89.6,72.9,30.03,South,176,4.0,4.0,58,0.00,,---,0.00,VWS V14.01,2013-05-12 17:36:00,
2013-05-12 13:37:00,89.6,72.9,30.03,South,176,4.0,4.0,58,0.00,,---,0.00,VWS V14.01,2013-05-12 17:37:00,
2013-05-12 13:39:00,89.6,72.9,30.03,South,176,4.0,4.0,58,0.00,,---,0.00,VWS V14.01,2013-05-12 17:39:00,
2013-05-12 13:40:00,89.6,72.9,30.03,South,176,4.0,4.0,58,0.00,,---,0.00,VWS V14.01,2013-05-12 17:40:00,
2013-05-12 13:41:00,89.6,72.9,30.03,South,176,4.0,4.0,58,0.00,,---,0.00,VWS V14.01,2013-05-12 17:41:00,
2013-05-12 13:42:00,89.6,72.9,30.03,South,176,4.0,4.0,58,0.00,,---,0.00,VWS V14.01,2013-05-12 17:42:00,
2013-05-12 13:45:00,89.6,72.9,30.03,SSE,163,0.0,0.0,58,0.00,,---,0.00,VWS V14.01,2013-05-12 17:45:00,
2013-05-12 13:46:00,89.6,72.9,30.03,SSE,163,0.0,0.0,58,0.00,,---,0.00,VWS V14.01,2013-05-12 17:46:00,
2013-05-12 13:47:00,89.6,72.9,30.03,SSE,163,0.0,0.0,58,0.00,,---,0.00,VWS V14.01,2013-05-12 17:47:00,
2013-05-12 13:50:00,89.6,72.9,30.03,South,177,2.7,2.7,58,0.00,,---,0.00,VWS V14.01,2013-05-12 17:50:00,
2013-05-12 13:51:00,89.6,72.9,30.03,South,177,2.7,2.7,58,0.00,,---,0.00,VWS V14.01,2013-05-12 17:51:00,
2013-05-12 13:52:00,89.6,72.9,30.03,SW,216,2.7,2.7,58,0.00,,---,0.00,VWS V14.01,2013-05-12 17:52:00,
2013-05-12 13:55:00,89.6,72.9,30.03,SW,216,2.7,2.7,58,0.00,,---,0.00,VWS V14.01,2013-05-12 17:55:00,
2013-05-12 13:56:00,89.6,72.9,30.03,SSW,212,0.0,2.7,58,0.00,,---,0.00,VWS V14.01,2013-05-12 17:56:00,
2013-05-12 13:57:00,89.6,72.9,30.03,SSW,212,0.0,0.0,58,0.00,,---,0.00,VWS V14.01,2013-05-12 17:57:00,
2013-05-12 14:00:00,89.6,72.9,30.03,SSW,212,0.0,0.0,58,0.00,,---,0.00,VWS V14.01,2013-05-12 18:00:00,
2013-05-12 14:01:00,89.6,72.9,30.03,SSW,212,0.0,0.0,58,0.00,,---,0.00,VWS V14.01,2013-05-12 18:01:00,
2013-05-12 14:02:00,89.6,72.9,30.03,SSW,212,0.0,0.0,58,0.00,,---,0.00,VWS V14.01,2013-05-12 18:02:00,
2013-05-12 14:05:00,89.6,72.9,30.03,SW,214,2.7,2.7,58,0.00,,---,0.00,VWS V14.01,2013-05-12 18:05:00,
2013-05-12 14:06:00,89.6,72.9,30.03,SW,214,2.7,2.7,58,0.00,,---,0.00,VWS V14.01,2013-05-12 18:06:00,
2013-05-12 14:07:00,89.6,72.9,30.03,SW,214,2.7,2.7,58,0.00,,---,0.00,VWS V14.01,2013-05-12 18:07:00,
2013-05-12 14:11:00,89.6,72.9,30.03,SSE,150,2.7,2.7,58,0.00,,---,0.00,VWS V14.01,2013-05-12 18:11:00,
2013-05-12 14:12:00,89.6,72.9,30.03,SSE,150,2.7,2.7,58,0.00,,---,0.00,VWS V14.01,2013-05-12 18:12:00,
2013-05-12 14:16:00,89.6,72.9,30.03,SSE,157,5.4,5.4,58,0.00,,---,0.00,VWS V14.01,2013-05-12 18:16:00,
2013-05-12 14:18:00,89.6,72.9,30.03,SSE,157,5.4,5.4,58,0.00,,---,0.00,VWS V14.01,2013-05-12 18:18:00,
2013-05-12 14:21:00,90.0,73.2,30.03,SSW,203,3.1,3.1,58,0.00,,---,0.00,VWS V14.01,2013-05-12 18:21:00,
2013-05-12 14:23:00,90.0,73.2,30.03,SW,214,3.6,3.6,58,0.00,,---,0.00,VWS V14.01,2013-05-12 18:23:00,
2013-05-12 14:26:00,90.0,73.2,30.03,SW,214,3.6,3.6,58,0.00,,---,0.00,VWS V14.01,2013-05-12 18:26:00,
2013-05-12 14:28:00,90.0,73.2,30.03,South,191,2.7,3.6,58,0.00,,---,0.00,VWS V14.01,2013-05-12 18:28:00,
2013-05-12 14:31:00,90.0,73.2,30.03,South,191,2.7,2.7,58,0.00,,---,0.00,VWS V14.01,2013-05-12 18:31:00,
2013-05-12 14:32:00,90.0,73.2,30.03,SSW,209,3.1,3.1,58,0.00,,---,0.00,VWS V14.01,2013-05-12 18:32:00,
2013-05-12 14:33:00,90.0,73.2,30.03,SSW,209,3.1,3.1,58,0.00,,---,0.00,VWS V14.01,2013-05-12 18:33:00,
2013-05-12 14:36:00,90.0,73.2,30.03,SSW,209,3.1,3.1,58,0.00,,---,0.00,VWS V14.01,2013-05-12 18:36:00,
2013-05-12 14:37:00,90.0,73.2,30.03,SSW,210,4.9,4.9,58,0.00,,---,0.00,VWS V14.01,2013-05-12 18:37:00,
2013-05-12 14:38:00,90.0,73.2,30.03,SSW,210,4.9,4.9,58,0.00,,---,0.00,VWS V14.01,2013-05-12 18:38:00,
2013-05-12 14:41:00,90.0,73.2,30.03,South,182,3.1,3.1,58,0.00,,---,0.00,VWS V14.01,2013-05-12 18:41:00,
2013-05-12 14:42:00,90.0,73.2,30.03,South,182,3.1,3.1,58,0.00,,---,0.00,VWS V14.01,2013-05-12 18:42:00,
2013-05-12 14:43:00,90.0,73.2,30.03,South,182,3.1,3.1,58,0.00,,---,0.00,VWS V14.01,2013-05-12 18:43:00,
2013-05-12 14:44:00,90.0,73.2,30.03,South,182,3.1,3.1,58,0.00,,---,0.00,VWS V14.01,2013-05-12 18:44:00,
2013-05-12 14:46:00,91.0,74.2,30.03,SSW,209,3.1,3.1,58,0.00,,---,0.00,VWS V14.01,2013-05-12 18:46:00,
2013-05-12 14:47:00,91.0,74.2,30.03,SSW,209,3.1,3.1,58,0.00,,---,0.00,VWS V14.01,2013-05-12 18:47:00,
2013-05-12 14:48:00,91.0,74.2,30.03,SSW,209,3.1,3.1,58,0.00,,---,0.00,VWS V14.01,2013-05-12 18:48:00,
2013-05-12 14:49:00,91.0,74.2,30.03,SSW,209,3.1,3.1,58,0.00,,---,0.00,VWS V14.01,2013-05-12 18:49:00,
2013-05-12 14:51:00,91.0,74.2,30.03,SSE,165,5.8,5.8,58,0.00,,---,0.00,VWS V14.01,2013-05-12 18:51:00,
2013-05-12 14:52:00,91.0,74.2,30.03,SSE,165,5.8,5.8,58,0.00,,---,0.00,VWS V14.01,2013-05-12 18:52:00,
2013-05-12 14:53:00,91.0,74.2,30.03,SSE,165,5.8,5.8,58,0.00,,---,0.00,VWS V14.01,2013-05-12 18:53:00,
2013-05-12 14:54:00,91.0,74.2,30.03,SSE,153,3.6,5.8,58,0.00,,---,0.00,VWS V14.01,2013-05-12 18:54:00,
2013-05-12 14:56:00,91.0,74.2,30.03,SSE,153,3.6,3.6,58,0.00,,---,0.00,VWS V14.01,2013-05-12 18:56:00,
2013-05-12 14:57:00,91.0,74.2,30.03,SSE,153,3.6,3.6,58,0.00,,---,0.00,VWS V14.01,2013-05-12 18:57:00,
2013-05-12 14:58:00,91.0,74.2,30.03,South,185,2.7,3.6,58,0.00,,---,0.00,VWS V14.01,2013-05-12 18:58:00,
2013-05-12 14:59:00,91.0,74.2,30.03,SE,141,7.2,7.2,58,0.00,,---,0.00,VWS V14.01,2013-05-12 18:59:00,
2013-05-12 15:02:00,89.8,72.0,30.03,SE,141,7.2,7.2,56,0.00,,---,0.00,VWS V14.01,2013-05-12 19:02:00,
2013-05-12 15:03:00,89.8,72.0,30.03,SSE,156,4.0,4.0,56,0.00,,---,0.00,VWS V14.01,2013-05-12 19:03:00,
2013-05-12 15:04:00,89.8,72.0,30.03,SSE,156,4.0,4.0,56,0.00,,---,0.00,VWS V14.01,2013-05-12 19:04:00,
2013-05-12 15:07:00,89.8,72.0,30.03,SSE,156,4.0,4.0,56,0.00,,---,0.00,VWS V14.01,2013-05-12 19:07:00,
2013-05-12 15:09:00,89.8,72.0,30.03,SSE,157,5.8,5.8,56,0.00,,---,0.00,VWS V14.01,2013-05-12 19:09:00,
2013-05-12 15:12:00,89.8,72.5,30.03,SSE,158,2.7,2.7,57,0.00,,---,0.00,VWS V14.01,2013-05-12 19:12:00,
2013-05-12 15:14:00,89.8,72.5,30.03,SSE,158,2.7,2.7,57,0.00,,---,0.00,VWS V14.01,2013-05-12 19:14:00,
2013-05-12 15:15:00,89.8,72.5,30.03,SSE,158,2.7,2.7,57,0.00,,---,0.00,VWS V14.01,2013-05-12 19:15:00,
2013-05-12 15:17:00,89.8,72.5,30.03,SSW,211,4.0,4.0,57,0.00,,---,0.00,VWS V14.01,2013-05-12 19:17:00,
2013-05-12 15:19:00,89.8,72.5,30.03,South,170,4.0,4.0,57,0.00,,---,0.00,VWS V14.01,2013-05-12 19:19:00,
2013-05-12 15:20:00,89.8,72.5,30.03,South,170,4.0,4.0,57,0.00,,---,0.00,VWS V14.01,2013-05-12 19:20:00,
2013-05-12 15:22:00,89.8,72.5,30.03,South,179,4.0,4.0,57,0.00,,---,0.00,VWS V14.01,2013-05-12 19:22:00,
2013-05-12 15:24:00,89.8,72.5,30.03,South,179,4.0,4.0,57,0.00,,---,0.00,VWS V14.01,2013-05-12 19:24:00,
2013-05-12 15:25:00,89.8,72.5,30.03,SSW,210,3.1,3.1,57,0.00,,---,0.00,VWS V14.01,2013-05-12 19:25:00,
2013-05-12 15:27:00,89.8,72.5,30.03,SSW,210,3.1,3.1,57,0.00,,---,0.00,VWS V14.01,2013-05-12 19:27:00,
2013-05-12 15:29:00,90.1,72.3,30.03,SSE,158,5.8,5.8,56,0.00,,---,0.00,VWS V14.01,2013-05-12 19:29:00,
2013-05-12 15:32:00,90.1,72.3,30.03,SSE,158,5.8,5.8,56,0.00,,---,0.00,VWS V14.01,2013-05-12 19:32:00,
2013-05-12 15:34:00,90.1,72.3,30.03,SSE,158,5.8,5.8,56,0.00,,---,0.00,VWS V14.01,2013-05-12 19:34:00,
2013-05-12 15:37:00,90.1,72.3,30.03,SSE,158,5.8,5.8,56,0.00,,---,0.00,VWS V14.01,2013-05-12 19:37:00,
2013-05-12 15:38:00,90.1,72.3,30.03,SSE,158,5.8,5.8,56,0.00,,---,0.00,VWS V14.01,2013-05-12 19:38:00,
2013-05-12 15:39:00,90.1,72.3,30.03,SSE,158,3.6,3.6,56,0.00,,---,0.00,VWS V14.01,2013-05-12 19:39:00,
2013-05-12 15:42:00,90.1,72.3,30.03,SSE,158,3.6,3.6,56,0.00,,---,0.00,VWS V14.01,2013-05-12 19:42:00,
2013-05-12 15:43:00,90.1,72.3,30.03,SSE,167,3.1,3.1,56,0.00,,---,0.00,VWS V14.01,2013-05-12 19:43:00,
2013-05-12 15:44:00,90.1,72.3,30.03,SSE,167,3.1,3.1,56,0.00,,---,0.00,VWS V14.01,2013-05-12 19:44:00,
2013-05-12 15:47:00,90.1,72.3,30.03,SSE,167,3.1,3.1,56,0.00,,---,0.00,VWS V14.01,2013-05-12 19:47:00,
2013-05-12 15:48:00,90.1,72.3,30.03,South,181,2.7,2.7,56,0.00,,---,0.00,VWS V14.01,2013-05-12 19:48:00,
2013-05-12 15:50:00,90.1,72.3,30.03,SSE,154,3.1,3.1,56,0.00,,---,0.00,VWS V14.01,2013-05-12 19:50:00,
2013-05-12 15:52:00,90.1,72.3,30.03,SSE,147,5.4,5.4,56,0.00,,---,0.00,VWS V14.01,2013-05-12 19:52:00,
2013-05-12 15:53:00,90.1,72.3,30.03,SSE,147,5.4,5.4,56,0.00,,---,0.00,VWS V14.01,2013-05-12 19:53:00,
2013-05-12 15:55:00,90.1,72.3,30.03,SSE,147,5.4,5.4,56,0.00,,---,0.00,VWS V14.01,2013-05-12 19:55:00,
2013-05-12 15:57:00,89.2,69.9,30.03,SSE,147,5.4,5.4,53,0.00,,---,0.00,VWS V14.01,2013-05-12 19:57:00,
2013-05-12 15:58:00,89.2,69.9,30.03,SSE,147,5.4,5.4,53,0.00,,---,0.00,VWS V14.01,2013-05-12 19:58:00,
2013-05-12 16:00:00,88.9,70.1,30.03,South,172,3.6,3.6,54,0.00,,---,0.00,VWS V14.01,2013-05-12 20:00:00,
2013-05-12 16:02:00,88.9,70.1,30.03,SSW,198,4.0,4.0,54,0.00,,---,0.00,VWS V14.01,2013-05-12 20:02:00,
2013-05-12 16:03:00,88.9,70.1,30.03,SSW,198,4.0,4.0,54,0.00,,---,0.00,VWS V14.01,2013-05-12 20:03:00,
2013-05-12 16:05:00,88.9,70.1,30.03,South,191,4.0,4.0,54,0.00,,---,0.00,VWS V14.01,2013-05-12 20:05:00,
2013-05-12 16:07:00,88.9,70.1,30.03,South,191,4.0,4.0,54,0.00,,---,0.00,VWS V14.01,2013-05-12 20:07:00,
2013-05-12 16:08:00,88.9,70.1,30.03,South,191,4.0,4.0,54,0.00,,---,0.00,VWS V14.01,2013-05-12 20:08:00,
2013-05-12 16:10:00,88.9,70.1,30.03,SSE,165,3.6,3.6,54,0.00,,---,0.00,VWS V14.01,2013-05-12 20:10:00,
2013-05-12 16:11:00,88.9,70.1,30.03,SSE,165,3.6,3.6,54,0.00,,---,0.00,VWS V14.01,2013-05-12 20:11:00,
2013-05-12 16:12:00,88.9,70.1,30.03,SSE,165,3.6,3.6,54,0.00,,---,0.00,VWS V14.01,2013-05-12 20:12:00,
2013-05-12 16:13:00,88.9,70.1,30.03,SSE,165,3.6,3.6,54,0.00,,---,0.00,VWS V14.01,2013-05-12 20:13:00,
2013-05-12 16:15:00,88.9,70.1,30.03,SSW,200,6.3,6.3,54,0.00,,---,0.00,VWS V14.01,2013-05-12 20:15:00,
2013-05-12 16:16:00,88.9,70.1,30.03,SSW,200,6.3,6.3,54,0.00,,---,0.00,VWS V14.01,2013-05-12 20:16:00,
2013-05-12 16:17:00,88.9,70.1,30.03,SSW,200,6.3,6.3,54,0.00,,---,0.00,VWS V14.01,2013-05-12 20:17:00,
2013-05-12 16:18:00,88.9,70.1,30.03,SSW,200,6.3,6.3,54,0.00,,---,0.00,VWS V14.01,2013-05-12 20:18:00,
2013-05-12 16:20:00,88.9,70.1,30.03,South,183,6.3,6.3,54,0.00,,---,0.00,VWS V14.01,2013-05-12 20:20:00,
2013-05-12 16:21:00,88.9,70.1,30.03,South,183,6.3,6.3,54,0.00,,---,0.00,VWS V14.01,2013-05-12 20:21:00,
2013-05-12 16:22:00,88.9,70.1,30.03,South,183,6.3,6.3,54,0.00,,---,0.00,VWS V14.01,2013-05-12 20:22:00,
2013-05-12 16:23:00,90.1,70.2,30.03,SW,222,3.1,3.1,52,0.00,,---,0.00,VWS V14.01,2013-05-12 20:23:00,
2013-05-12 16:25:00,90.0,70.6,30.03,SW,222,3.1,3.1,53,0.00,,---,0.00,VWS V14.01,2013-05-12 20:25:00,
2013-05-12 16:26:00,90.0,70.6,30.03,SW,222,3.1,3.1,53,0.00,,---,0.00,VWS V14.01,2013-05-12 20:26:00,
2013-05-12 16:27:00,90.0,70.6,30.03,South,171,3.6,3.6,53,0.00,,---,0.00,VWS V14.01,2013-05-12 20:27:00,
2013-05-12 16:28:00,90.0,70.6,30.03,South,171,3.6,3.6,53,0.00,,---,0.00,VWS V14.01,2013-05-12 20:28:00,
2013-05-12 16:29:00,90.0,70.6,30.03,South,181,3.6,3.6,53,0.00,,---,0.00,VWS V14.01,2013-05-12 20:29:00,
2013-05-12 16:30:00,90.0,70.6,30.03,South,181,3.6,3.6,53,0.00,,---,0.00,VWS V14.01,2013-05-12 20:30:00,
2013-05-12 16:31:00,90.0,70.6,30.03,SSE,167,3.1,3.6,53,0.00,,---,0.00,VWS V14.01,2013-05-12 20:31:00,
2013-05-12 16:32:00,90.0,70.6,30.03,SSE,167,3.1,3.1,53,0.00,,---,0.00,VWS V14.01,2013-05-12 20:32:00,
2013-05-12 16:33:00,90.0,70.6,30.03,SSE,167,3.1,3.1,53,0.00,,---,0.00,VWS V14.01,2013-05-12 20:33:00,
2013-05-12 16:35:00,90.0,70.6,30.03,SSE,167,3.1,3.1,53,0.00,,---,0.00,VWS V14.01,2013-05-12 20:35:00,
2013-05-12 16:36:00,90.0,70.6,30.03,SSE,161,5.8,5.8,53,0.00,,---,0.00,VWS V14.01,2013-05-12 20:36:00,
2013-05-12 16:37:00,90.0,70.6,30.03,SSE,161,5.8,5.8,53,0.00,,---,0.00,VWS V14.01,2013-05-12 20:37:00,
2013-05-12 16:39:00,90.0,70.6,30.03,SSE,154,3.6,5.8,53,0.00,,---,0.00,VWS V14.01,2013-05-12 20:39:00,
2013-05-12 16:40:00,90.0,70.6,30.03,SSE,154,3.6,3.6,53,0.00,,---,0.00,VWS V14.01,2013-05-12 20:40:00,
2013-05-12 16:41:00,90.0,70.6,30.03,SSE,154,3.6,3.6,53,0.00,,---,0.00,VWS V14.01,2013-05-12 20:41:00,
2013-05-12 16:42:00,90.0,70.6,30.03,SSE,154,3.6,3.6,53,0.00,,---,0.00,VWS V14.01,2013-05-12 20:42:00,
2013-05-12 16:44:00,90.0,70.6,30.03,SSE,154,3.6,3.6,53,0.00,,---,0.00,VWS V14.01,2013-05-12 20:44:00,
2013-05-12 16:45:00,90.0,70.6,30.03,SSE,154,3.6,3.6,53,0.00,,---,0.00,VWS V14.01,2013-05-12 20:45:00,
2013-05-12 16:46:00,90.0,70.6,30.03,SSE,154,3.6,3.6,53,0.00,,---,0.00,VWS V14.01,2013-05-12 20:46:00,
2013-05-12 16:48:00,90.0,70.6,30.03,SSE,154,3.6,3.6,53,0.00,,---,0.00,VWS V14.01,2013-05-12 20:48:00,
2013-05-12 16:49:00,91.2,70.0,30.03,South,172,4.0,4.0,50,0.00,,---,0.00,VWS V14.01,2013-05-12 20:49:00,
2013-05-12 16:51:00,91.2,70.0,30.03,South,172,4.0,4.0,50,0.00,,---,0.00,VWS V14.01,2013-05-12 20:51:00,
2013-05-12 16:53:00,91.4,70.7,30.03,South,172,4.0,4.0,51,0.00,,---,0.00,VWS V14.01,2013-05-12 20:53:00,
2013-05-12 16:54:00,91.4,70.7,30.03,South,172,4.0,4.0,51,0.00,,---,0.00,VWS V14.01,2013-05-12 20:54:00,
2013-05-12 16:56:00,91.4,70.7,30.03,South,172,4.0,4.0,51,0.00,,---,0.00,VWS V14.01,2013-05-12 20:56:00,
2013-05-12 16:57:00,91.4,70.7,30.03,South,172,4.0,4.0,51,0.00,,---,0.00,VWS V14.01,2013-05-12 20:57:00,
2013-05-12 16:58:00,91.4,70.7,30.03,South,172,4.0,4.0,51,0.00,,---,0.00,VWS V14.01,2013-05-12 20:58:00,
2013-05-12 16:59:00,91.4,70.7,30.03,South,172,4.0,4.0,51,0.00,,---,0.00,VWS V14.01,2013-05-12 20:59:00,
2013-05-12 17:01:00,91.4,70.7,30.03,South,172,4.0,4.0,51,0.00,,---,0.00,VWS V14.01,2013-05-12 21:01:00,
2013-05-12 17:02:00,91.4,70.7,30.03,South,172,4.0,4.0,51,0.00,,---,0.00,VWS V14.01,2013-05-12 21:02:00,
2013-05-12 17:03:00,91.4,70.7,30.03,South,172,4.0,4.0,51,0.00,,---,0.00,VWS V14.01,2013-05-12 21:03:00,
2013-05-12 17:04:00,91.4,70.7,30.03,South,172,4.0,4.0,51,0.00,,---,0.00,VWS V14.01,2013-05-12 21:04:00,
2013-05-12 17:06:00,91.4,70.7,30.03,South,172,4.0,4.0,51,0.00,,---,0.00,VWS V14.01,2013-05-12 21:06:00,
2013-05-12 17:07:00,91.4,70.7,30.03,South,172,4.0,4.0,51,0.00,,---,0.00,VWS V14.01,2013-05-12 21:07:00,
2013-05-12 17:08:00,91.4,70.7,30.03,South,172,4.0,4.0,51,0.00,,---,0.00,VWS V14.01,2013-05-12 21:08:00,
2013-05-12 17:09:00,91.4,70.7,30.03,South,172,4.0,4.0,51,0.00,,---,0.00,VWS V14.01,2013-05-12 21:09:00,
2013-05-12 17:11:00,91.4,70.7,30.00,South,172,4.0,4.0,51,0.00,,---,0.00,VWS V14.01,2013-05-12 21:11:00,
2013-05-12 17:12:00,91.4,70.7,30.00,South,172,4.0,4.0,51,0.00,,---,0.00,VWS V14.01,2013-05-12 21:12:00,
2013-05-12 17:13:00,90.0,70.0,30.00,South,172,4.0,4.0,52,0.00,,---,0.00,VWS V14.01,2013-05-12 21:13:00,
2013-05-12 17:15:00,90.0,70.0,30.00,South,172,4.0,4.0,52,0.00,,---,0.00,VWS V14.01,2013-05-12 21:15:00,
2013-05-12 17:16:00,90.0,70.0,30.00,South,172,4.0,4.0,52,0.00,,---,0.00,VWS V14.01,2013-05-12 21:16:00,
2013-05-12 17:17:00,90.0,70.0,30.00,South,172,4.0,4.0,52,0.00,,---,0.00,VWS V14.01,2013-05-12 21:17:00,
2013-05-12 17:19:00,90.0,70.0,30.00,South,172,4.0,4.0,52,0.00,,---,0.00,VWS V14.01,2013-05-12 21:19:00,
2013-05-12 17:20:00,90.0,70.0,30.00,South,172,4.0,4.0,52,0.00,,---,0.00,VWS V14.01,2013-05-12 21:20:00,
2013-05-12 17:21:00,90.0,70.0,30.00,South,172,4.0,4.0,52,0.00,,---,0.00,VWS V14.01,2013-05-12 21:21:00,
2013-05-12 17:22:00,90.0,70.0,30.00,South,172,4.0,4.0,52,0.00,,---,0.00,VWS V14.01,2013-05-12 21:22:00,
2013-05-12 17:24:00,90.0,70.0,30.00,South,172,4.0,4.0,52,0.00,,---,0.00,VWS V14.01,2013-05-12 21:24:00,
2013-05-12 17:25:00,90.0,70.0,30.00,South,172,4.0,4.0,52,0.00,,---,0.00,VWS V14.01,2013-05-12 21:25:00,
2013-05-12 17:26:00,90.0,70.0,30.00,South,172,4.0,4.0,52,0.00,,---,0.00,VWS V14.01,2013-05-12 21:26:00,
2013-05-12 17:27:00,90.0,70.0,30.00,South,172,4.0,4.0,52,0.00,,---,0.00,VWS V14.01,2013-05-12 21:27:00,
2013-05-12 17:28:00,90.0,70.0,30.00,South,172,4.0,4.0,52,0.00,,---,0.00,VWS V14.01,2013-05-12 21:28:00,
2013-05-12 17:29:00,90.0,70.0,30.00,South,172,4.0,4.0,52,0.00,,---,0.00,VWS V14.01,2013-05-12 21:29:00,
2013-05-12 17:30:00,90.0,70.0,30.00,South,172,4.0,4.0,52,0.00,,---,0.00,VWS V14.01,2013-05-12 21:30:00,
2013-05-12 17:32:00,90.0,70.0,30.00,South,172,4.0,4.0,52,0.00,,---,0.00,VWS V14.01,2013-05-12 21:32:00,
2013-05-12 17:33:00,90.0,70.0,30.00,South,172,4.0,4.0,52,0.00,,---,0.00,VWS V14.01,2013-05-12 21:33:00,
2013-05-12 17:34:00,90.0,70.0,30.00,South,172,4.0,4.0,52,0.00,,---,0.00,VWS V14.01,2013-05-12 21:34:00,
2013-05-12 17:35:00,90.0,70.0,30.00,South,172,4.0,4.0,52,0.00,,---,0.00,VWS V14.01,2013-05-12 21:35:00,
2013-05-12 17:37:00,90.0,70.0,30.00,South,172,4.0,4.0,52,0.00,,---,0.00,VWS V14.01,2013-05-12 21:37:00,
2013-05-12 17:38:00,87.3,71.2,30.00,South,172,4.0,4.0,59,0.00,,---,0.00,VWS V14.01,2013-05-12 21:38:00,
2013-05-12 17:39:00,87.3,71.2,30.00,South,172,4.0,4.0,59,0.00,,---,0.00,VWS V14.01,2013-05-12 21:39:00,
2013-05-12 17:41:00,87.3,71.2,30.00,South,172,4.0,4.0,59,0.00,,---,0.00,VWS V14.01,2013-05-12 21:41:00,
2013-05-12 17:42:00,87.3,71.2,30.00,South,172,4.0,4.0,59,0.00,,---,0.00,VWS V14.01,2013-05-12 21:42:00,
2013-05-12 17:43:00,87.3,71.2,30.00,South,172,4.0,4.0,59,0.00,,---,0.00,VWS V14.01,2013-05-12 21:43:00,
2013-05-12 17:44:00,87.3,71.2,30.00,South,172,4.0,4.0,59,0.00,,---,0.00,VWS V14.01,2013-05-12 21:44:00,
2013-05-12 17:46:00,87.3,71.2,30.00,South,172,4.0,4.0,59,0.00,,---,0.00,VWS V14.01,2013-05-12 21:46:00,
2013-05-12 17:47:00,87.3,71.2,30.00,South,172,4.0,4.0,59,0.00,,---,0.00,VWS V14.01,2013-05-12 21:47:00,
2013-05-12 17:48:00,85.5,71.4,30.00,South,172,4.0,4.0,63,0.00,,---,0.00,VWS V14.01,2013-05-12 21:48:00,
2013-05-12 17:49:00,85.5,71.4,30.00,South,172,4.0,4.0,63,0.00,,---,0.00,VWS V14.01,2013-05-12 21:49:00,
2013-05-12 17:51:00,85.5,71.4,30.00,South,172,4.0,4.0,63,0.00,,---,0.00,VWS V14.01,2013-05-12 21:51:00,
2013-05-12 17:52:00,85.5,71.4,30.00,South,172,4.0,4.0,63,0.00,,---,0.00,VWS V14.01,2013-05-12 21:52:00,
2013-05-12 17:54:00,85.5,71.4,30.00,South,172,4.0,4.0,63,0.00,,---,0.00,VWS V14.01,2013-05-12 21:54:00,
2013-05-12 17:55:00,85.5,71.4,30.00,South,172,4.0,4.0,63,0.00,,---,0.00,VWS V14.01,2013-05-12 21:55:00,
2013-05-12 17:56:00,85.5,71.4,30.00,South,172,4.0,4.0,63,0.00,,---,0.00,VWS V14.01,2013-05-12 21:56:00,
2013-05-12 17:57:00,85.5,71.4,30.00,South,172,4.0,4.0,63,0.00,,---,0.00,VWS V14.01,2013-05-12 21:57:00,
2013-05-12 17:59:00,85.5,71.4,30.00,South,172,4.0,4.0,63,0.00,,---,0.00,VWS V14.01,2013-05-12 21:59:00,
2013-05-12 18:00:00,85.5,71.4,30.00,South,172,4.0,4.0,63,0.00,,---,0.00,VWS V14.01,2013-05-12 22:00:00,
2013-05-12 18:01:00,85.5,71.4,30.00,South,172,4.0,4.0,63,0.00,,---,0.00,VWS V14.01,2013-05-12 22:01:00,
2013-05-12 18:02:00,84.6,71.5,30.00,South,172,4.0,4.0,65,0.00,,---,0.00,VWS V14.01,2013-05-12 22:02:00,
2013-05-12 18:04:00,84.6,71.5,30.00,South,172,4.0,4.0,65,0.00,,---,0.00,VWS V14.01,2013-05-12 22:04:00,
2013-05-12 18:05:00,84.6,71.5,30.00,South,172,4.0,4.0,65,0.00,,---,0.00,VWS V14.01,2013-05-12 22:05:00,
2013-05-12 18:07:00,84.6,71.5,30.00,South,172,4.0,4.0,65,0.00,,---,0.00,VWS V14.01,2013-05-12 22:07:00,
2013-05-12 18:08:00,84.6,71.5,30.00,South,172,4.0,4.0,65,0.00,,---,0.00,VWS V14.01,2013-05-12 22:08:00,
2013-05-12 18:09:00,84.6,71.5,30.00,South,172,4.0,4.0,65,0.00,,---,0.00,VWS V14.01,2013-05-12 22:09:00,
2013-05-12 18:10:00,84.6,71.5,30.00,South,172,4.0,4.0,65,0.00,,---,0.00,VWS V14.01,2013-05-12 22:10:00,
2013-05-12 18:12:00,84.6,71.5,30.00,South,172,4.0,4.0,65,0.00,,---,0.00,VWS V14.01,2013-05-12 22:12:00,
2013-05-12 18:13:00,84.6,71.5,30.00,South,172,4.0,4.0,65,0.00,,---,0.00,VWS V14.01,2013-05-12 22:13:00,
2013-05-12 18:14:00,84.6,71.5,30.00,South,172,4.0,4.0,65,0.00,,---,0.00,VWS V14.01,2013-05-12 22:14:00,
2013-05-12 18:15:00,82.0,66.3,30.00,South,172,4.0,4.0,59,0.00,,---,0.00,VWS V14.01,2013-05-12 22:15:00,
2013-05-12 18:17:00,82.0,66.3,30.00,South,172,4.0,4.0,59,0.00,,---,0.00,VWS V14.01,2013-05-12 22:17:00,
2013-05-12 18:18:00,82.0,66.3,30.00,South,172,4.0,4.0,59,0.00,,---,0.00,VWS V14.01,2013-05-12 22:18:00,
2013-05-12 18:19:00,82.0,66.3,30.00,South,172,4.0,4.0,59,0.00,,---,0.00,VWS V14.01,2013-05-12 22:19:00,
2013-05-12 18:20:00,82.0,66.3,30.00,South,172,4.0,4.0,59,0.00,,---,0.00,VWS V14.01,2013-05-12 22:20:00,
2013-05-12 18:22:00,82.0,66.3,30.00,South,172,4.0,4.0,59,0.24,,---,0.24,VWS V14.01,2013-05-12 22:22:00,
2013-05-12 18:23:00,82.0,66.3,30.00,South,172,4.0,4.0,59,0.24,,---,0.24,VWS V14.01,2013-05-12 22:23:00,
2013-05-12 18:25:00,82.0,66.3,30.00,South,172,4.0,4.0,59,0.24,,---,0.24,VWS V14.01,2013-05-12 22:25:00,
2013-05-12 18:26:00,82.0,66.3,30.00,South,172,4.0,4.0,59,0.24,,---,0.24,VWS V14.01,2013-05-12 22:26:00,
2013-05-12 18:27:00,82.0,66.3,30.00,South,172,4.0,4.0,59,0.24,,---,0.24,VWS V14.01,2013-05-12 22:27:00,
2013-05-12 18:28:00,82.0,66.3,30.00,South,172,4.0,4.0,59,0.24,,---,0.24,VWS V14.01,2013-05-12 22:28:00,
2013-05-12 18:30:00,82.0,66.3,30.00,South,172,4.0,4.0,59,0.24,,---,0.24,VWS V14.01,2013-05-12 22:30:00,
2013-05-12 18:31:00,82.0,66.3,30.00,South,172,4.0,4.0,59,0.24,,---,0.24,VWS V14.01,2013-05-12 22:31:00,
2013-05-12 18:32:00,82.0,66.3,30.00,South,172,4.0,4.0,59,0.87,,---,0.87,VWS V14.01,2013-05-12 22:32:00,
2013-05-12 18:33:00,82.0,66.3,30.00,South,172,4.0,4.0,59,0.87,,---,0.87,VWS V14.01,2013-05-12 22:33:00,
2013-05-12 18:34:00,82.0,66.3,30.00,South,172,4.0,4.0,59,0.87,,---,0.87,VWS V14.01,2013-05-12 22:34:00,
2013-05-12 18:35:00,82.0,66.3,30.00,South,172,4.0,4.0,59,0.87,,---,0.87,VWS V14.01,2013-05-12 22:35:00,
2013-05-12 18:36:00,82.0,66.3,30.00,South,172,4.0,4.0,59,0.87,,---,0.87,VWS V14.01,2013-05-12 22:36:00,
2013-05-12 18:37:00,82.0,66.3,30.00,South,172,4.0,4.0,59,0.87,,---,0.87,VWS V14.01,2013-05-12 22:37:00,
2013-05-12 18:38:00,82.0,66.3,30.00,South,172,4.0,4.0,59,0.87,,---,0.87,VWS V14.01,2013-05-12 22:38:00,
2013-05-12 18:39:00,82.0,66.3,30.00,South,172,4.0,4.0,59,0.87,,---,0.87,VWS V14.01,2013-05-12 22:39:00,
2013-05-12 18:40:00,82.0,66.3,30.00,South,172,4.0,4.0,59,0.87,,---,0.87,VWS V14.01,2013-05-12 22:40:00,
2013-05-12 18:41:00,82.0,66.3,30.00,South,172,4.0,4.0,59,0.87,,---,0.87,VWS V14.01,2013-05-12 22:41:00,
2013-05-12 18:43:00,82.0,66.3,30.00,South,172,4.0,4.0,59,0.87,,---,0.87,VWS V14.01,2013-05-12 22:43:00,
2013-05-12 18:44:00,82.0,66.3,30.00,South,172,4.0,4.0,59,0.91,,---,0.91,VWS V14.01,2013-05-12 22:44:00,
2013-05-12 18:45:00,82.0,66.3,30.00,South,172,4.0,4.0,59,0.91,,---,0.91,VWS V14.01,2013-05-12 22:45:00,
2013-05-12 18:46:00,82.0,66.3,30.00,South,172,4.0,4.0,59,0.91,,---,0.91,VWS V14.01,2013-05-12 22:46:00,
2013-05-12 18:48:00,82.0,66.3,30.00,South,172,4.0,4.0,59,0.91,,---,0.91,VWS V14.01,2013-05-12 22:48:00,
2013-05-12 18:49:00,82.0,66.3,30.00,South,172,4.0,4.0,59,0.91,,---,0.91,VWS V14.01,2013-05-12 22:49:00,
2013-05-12 18:50:00,82.0,66.3,30.00,South,172,4.0,4.0,59,0.91,,---,0.91,VWS V14.01,2013-05-12 22:50:00,
2013-05-12 18:51:00,75.9,69.3,30.00,South,172,4.0,4.0,80,0.91,,---,0.91,VWS V14.01,2013-05-12 22:51:00,
2013-05-12 18:53:00,75.9,69.3,30.00,South,172,4.0,4.0,80,0.91,,---,0.91,VWS V14.01,2013-05-12 22:53:00,
2013-05-12 18:54:00,75.9,69.3,30.00,South,172,4.0,4.0,80,0.91,,---,0.91,VWS V14.01,2013-05-12 22:54:00,
2013-05-12 18:56:00,75.9,69.3,30.00,South,172,4.0,4.0,80,0.94,,---,0.94,VWS V14.01,2013-05-12 22:56:00,
2013-05-12 18:57:00,75.9,69.3,30.00,South,172,4.0,4.0,80,0.94,,---,0.94,VWS V14.01,2013-05-12 22:57:00,
2013-05-12 18:58:00,75.9,69.3,30.00,South,172,4.0,4.0,80,0.94,,---,0.94,VWS V14.01,2013-05-12 22:58:00,
2013-05-12 18:59:00,75.9,69.3,30.00,South,172,4.0,4.0,80,0.94,,---,0.94,VWS V14.01,2013-05-12 22:59:00,
2013-05-12 19:01:00,75.9,69.3,30.00,South,172,4.0,4.0,80,0.94,,---,0.94,VWS V14.01,2013-05-12 23:01:00,
2013-05-12 19:02:00,75.9,69.3,30.00,South,172,4.0,4.0,80,0.98,,---,0.98,VWS V14.01,2013-05-12 23:02:00,
2013-05-12 19:03:00,75.9,69.3,30.00,South,172,4.0,4.0,80,0.98,,---,0.98,VWS V14.01,2013-05-12 23:03:00,
2013-05-12 19:04:00,75.9,69.3,30.00,South,172,4.0,4.0,80,0.98,,---,0.98,VWS V14.01,2013-05-12 23:04:00,
2013-05-12 19:06:00,75.9,69.3,30.00,South,172,4.0,4.0,80,0.98,,---,0.98,VWS V14.01,2013-05-12 23:06:00,
2013-05-12 19:07:00,75.9,69.3,30.00,South,172,4.0,4.0,80,0.98,,---,0.98,VWS V14.01,2013-05-12 23:07:00,
2013-05-12 19:08:00,75.9,69.3,30.00,South,172,4.0,4.0,80,0.98,,---,0.98,VWS V14.01,2013-05-12 23:08:00,
2013-05-12 19:09:00,75.9,69.3,30.00,South,172,4.0,4.0,80,0.98,,---,0.98,VWS V14.01,2013-05-12 23:09:00,
2013-05-12 19:11:00,75.9,69.3,30.00,South,172,4.0,4.0,80,0.98,,---,0.98,VWS V14.01,2013-05-12 23:11:00,
2013-05-12 19:12:00,75.9,69.3,30.00,South,172,4.0,4.0,80,0.98,,---,0.98,VWS V14.01,2013-05-12 23:12:00,
2013-05-12 19:13:00,75.9,69.3,30.00,South,172,4.0,4.0,80,0.98,,---,0.98,VWS V14.01,2013-05-12 23:13:00,
2013-05-12 19:14:00,75.9,69.3,30.00,South,172,4.0,4.0,80,0.98,,---,0.98,VWS V14.01,2013-05-12 23:14:00,
2013-05-12 19:16:00,75.9,70.0,30.00,South,172,4.0,4.0,82,0.98,,---,0.98,VWS V14.01,2013-05-12 23:16:00,
2013-05-12 19:17:00,75.9,70.0,30.00,South,172,4.0,4.0,82,0.98,,---,0.98,VWS V14.01,2013-05-12 23:17:00,
2013-05-12 19:18:00,75.9,70.0,30.00,South,172,4.0,4.0,82,0.98,,---,0.98,VWS V14.01,2013-05-12 23:18:00,
2013-05-12 19:19:00,75.9,70.0,30.00,South,172,4.0,4.0,82,0.98,,---,0.98,VWS V14.01,2013-05-12 23:19:00,
2013-05-12 19:21:00,75.9,70.0,30.00,South,172,4.0,4.0,82,0.98,,---,0.98,VWS V14.01,2013-05-12 23:21:00,
2013-05-12 19:22:00,75.9,70.0,30.00,South,172,4.0,4.0,82,0.75,,---,0.98,VWS V14.01,2013-05-12 23:22:00,
2013-05-12 19:23:00,75.9,70.0,30.00,South,172,4.0,4.0,82,0.75,,---,0.98,VWS V14.01,2013-05-12 23:23:00,
2013-05-12 19:24:00,75.9,70.0,30.00,South,172,4.0,4.0,82,0.75,,---,0.98,VWS V14.01,2013-05-12 23:24:00,
2013-05-12 19:26:00,75.9,70.0,30.00,South,172,4.0,4.0,82,0.75,,---,0.98,VWS V14.01,2013-05-12 23:26:00,
2013-05-12 19:27:00,75.9,70.0,30.00,South,172,4.0,4.0,82,0.75,,---,0.98,VWS V14.01,2013-05-12 23:27:00,
2013-05-12 19:28:00,75.9,70.0,30.00,South,172,4.0,4.0,82,0.75,,---,0.98,VWS V14.01,2013-05-12 23:28:00,
2013-05-12 19:29:00,75.9,70.0,30.00,South,172,4.0,4.0,82,0.75,,---,0.98,VWS V14.01,2013-05-12 23:29:00,
2013-05-12 19:31:00,75.9,70.0,30.00,South,172,4.0,4.0,82,0.75,,---,0.98,VWS V14.01,2013-05-12 23:31:00,
2013-05-12 19:32:00,75.9,70.0,30.00,South,172,4.0,4.0,82,0.75,,---,0.98,VWS V14.01,2013-05-12 23:32:00,
2013-05-12 19:34:00,75.9,70.0,30.00,South,172,4.0,4.0,82,0.12,,---,0.98,VWS V14.01,2013-05-12 23:34:00,
2013-05-12 19:36:00,75.9,70.0,30.00,South,172,4.0,4.0,82,0.12,,---,0.98,VWS V14.01,2013-05-12 23:36:00,
2013-05-12 19:37:00,75.9,70.0,30.00,South,172,4.0,4.0,82,0.12,,---,0.98,VWS V14.01,2013-05-12 23:37:00,
2013-05-12 19:39:00,75.9,70.0,30.00,South,172,4.0,4.0,82,0.12,,---,0.98,VWS V14.01,2013-05-12 23:39:00,
2013-05-12 19:40:00,75.9,70.0,30.00,South,172,4.0,4.0,82,0.12,,---,0.98,VWS V14.01,2013-05-12 23:40:00,
2013-05-12 19:41:00,75.9,70.4,30.00,South,172,4.0,4.0,83,0.12,,---,0.98,VWS V14.01,2013-05-12 23:41:00,
2013-05-12 19:43:00,75.9,70.4,30.00,South,172,4.0,4.0,83,0.12,,---,0.98,VWS V14.01,2013-05-12 23:43:00,
2013-05-12 19:44:00,75.9,70.4,30.00,South,172,4.0,4.0,83,0.08,,---,0.98,VWS V14.01,2013-05-12 23:44:00,
2013-05-12 19:45:00,75.9,70.4,30.00,South,172,4.0,4.0,83,0.08,,---,0.98,VWS V14.01,2013-05-12 23:45:00,
2013-05-12 19:46:00,75.9,70.4,30.00,South,172,4.0,4.0,83,0.08,,---,0.98,VWS V14.01,2013-05-12 23:46:00,
2013-05-12 19:48:00,75.9,70.4,30.00,South,172,4.0,4.0,83,0.08,,---,0.98,VWS V14.01,2013-05-12 23:48:00,
2013-05-12 19:49:00,75.9,70.4,30.00,South,172,4.0,4.0,83,0.08,,---,0.98,VWS V14.01,2013-05-12 23:49:00,
2013-05-12 19:50:00,75.9,70.4,30.00,South,172,4.0,4.0,83,0.08,,---,0.98,VWS V14.01,2013-05-12 23:50:00,
2013-05-12 19:51:00,75.9,70.4,30.00,South,172,4.0,4.0,83,0.08,,---,0.98,VWS V14.01,2013-05-12 23:51:00,
2013-05-12 19:53:00,75.9,70.4,30.00,South,172,4.0,4.0,83,0.08,,---,0.98,VWS V14.01,2013-05-12 23:53:00,
2013-05-12 19:54:00,75.9,70.4,30.00,South,172,4.0,4.0,83,0.08,,---,0.98,VWS V14.01,2013-05-12 23:54:00,
2013-05-12 19:55:00,75.9,70.4,30.00,South,172,4.0,4.0,83,0.04,,---,0.98,VWS V14.01,2013-05-12 23:55:00,
2013-05-12 19:57:00,75.9,70.4,30.06,South,172,4.0,4.0,83,0.04,,---,0.98,VWS V14.01,2013-05-12 23:57:00,
2013-05-12 19:58:00,75.9,70.4,30.06,South,172,4.0,4.0,83,0.04,,---,0.98,VWS V14.01,2013-05-12 23:58:00,
2013-05-12 19:59:00,75.9,70.4,30.06,South,172,4.0,4.0,83,0.04,,---,0.98,VWS V14.01,2013-05-12 23:59:00,
2013-05-12 20:00:00,75.9,70.4,30.06,South,172,4.0,4.0,83,0.04,,---,0.98,VWS V14.01,2013-05-13 00:00:00,
2013-05-12 20:02:00,75.9,70.4,30.06,South,172,4.0,4.0,83,0.00,,---,0.98,VWS V14.01,2013-05-13 00:02:00,
2013-05-12 20:03:00,75.9,70.4,30.06,South,172,4.0,4.0,83,0.00,,---,0.98,VWS V14.01,2013-05-13 00:03:00,
2013-05-12 20:04:00,75.9,70.4,30.06,South,172,4.0,4.0,83,0.00,,---,0.98,VWS V14.01,2013-05-13 00:04:00,
2013-05-12 20:05:00,75.9,70.4,30.06,South,172,4.0,4.0,83,0.00,,---,0.98,VWS V14.01,2013-05-13 00:05:00,
2013-05-12 20:06:00,75.6,70.7,30.06,South,172,4.0,4.0,85,0.00,,---,0.98,VWS V14.01,2013-05-13 00:06:00,
2013-05-12 20:07:00,75.6,70.7,30.06,South,172,4.0,4.0,85,0.00,,---,0.98,VWS V14.01,2013-05-13 00:07:00,
2013-05-12 20:08:00,75.4,70.6,30.06,South,172,4.0,4.0,85,0.00,,---,0.98,VWS V14.01,2013-05-13 00:08:00,
2013-05-12 20:10:00,75.4,70.6,30.06,South,172,4.0,4.0,85,0.00,,---,0.98,VWS V14.01,2013-05-13 00:10:00,
2013-05-12 20:11:00,75.4,70.6,30.06,South,172,4.0,4.0,85,0.00,,---,0.98,VWS V14.01,2013-05-13 00:11:00,
2013-05-12 20:12:00,75.4,70.6,30.06,South,172,4.0,4.0,85,0.00,,---,0.98,VWS V14.01,2013-05-13 00:12:00,
2013-05-12 20:13:00,75.4,70.6,30.06,South,172,4.0,4.0,85,0.00,,---,0.98,VWS V14.01,2013-05-13 00:13:00,
2013-05-12 20:15:00,75.4,70.6,30.06,South,172,4.0,4.0,85,0.00,,---,0.98,VWS V14.01,2013-05-13 00:15:00,
2013-05-12 20:16:00,75.4,70.6,30.06,South,172,4.0,4.0,85,0.00,,---,0.98,VWS V14.01,2013-05-13 00:16:00,
2013-05-12 20:17:00,75.4,70.6,30.06,South,172,4.0,4.0,85,0.00,,---,0.98,VWS V14.01,2013-05-13 00:17:00,
2013-05-12 20:18:00,75.4,70.6,30.06,South,172,4.0,4.0,85,0.00,,---,0.98,VWS V14.01,2013-05-13 00:18:00,
2013-05-12 20:20:00,75.4,70.6,30.06,South,172,4.0,4.0,85,0.00,,---,0.98,VWS V14.01,2013-05-13 00:20:00,
2013-05-12 20:21:00,75.4,70.6,30.06,South,172,4.0,4.0,85,0.00,,---,0.98,VWS V14.01,2013-05-13 00:21:00,
2013-05-12 20:22:00,75.4,70.6,30.06,South,172,4.0,4.0,85,0.00,,---,0.98,VWS V14.01,2013-05-13 00:22:00,
2013-05-12 20:23:00,75.4,70.6,30.06,South,172,4.0,4.0,85,0.00,,---,0.98,VWS V14.01,2013-05-13 00:23:00,
2013-05-12 20:25:00,75.4,70.6,30.06,South,172,4.0,4.0,85,0.00,,---,0.98,VWS V14.01,2013-05-13 00:25:00,
2013-05-12 20:27:00,75.4,70.6,30.06,South,172,4.0,4.0,85,0.00,,---,0.98,VWS V14.01,2013-05-13 00:27:00,
2013-05-12 20:28:00,75.4,70.6,30.06,South,172,4.0,4.0,85,0.00,,---,0.98,VWS V14.01,2013-05-13 00:28:00,
2013-05-12 20:30:00,75.4,70.6,30.06,South,172,4.0,4.0,85,0.00,,---,0.98,VWS V14.01,2013-05-13 00:30:00,
2013-05-12 20:32:00,75.4,70.6,30.06,South,172,4.0,4.0,85,0.00,,---,0.98,VWS V14.01,2013-05-13 00:32:00,
2013-05-12 20:33:00,75.4,70.6,30.06,South,172,4.0,4.0,85,0.00,,---,0.98,VWS V14.01,2013-05-13 00:33:00,
2013-05-12 20:36:00,75.0,70.6,30.06,South,172,4.0,4.0,86,0.00,,---,0.98,VWS V14.01,2013-05-13 00:36:00,
2013-05-12 20:37:00,75.0,70.6,30.06,South,172,4.0,4.0,86,0.00,,---,0.98,VWS V14.01,2013-05-13 00:37:00,
2013-05-12 20:38:00,75.0,70.6,30.06,South,172,4.0,4.0,86,0.00,,---,0.98,VWS V14.01,2013-05-13 00:38:00,
2013-05-12 20:41:00,75.0,70.6,30.06,South,172,4.0,4.0,86,0.00,,---,0.98,VWS V14.01,2013-05-13 00:41:00,
2013-05-12 20:42:00,75.0,70.6,30.06,South,172,4.0,4.0,86,0.00,,---,0.98,VWS V14.01,2013-05-13 00:42:00,
2013-05-12 20:44:00,75.0,70.6,30.06,South,172,4.0,4.0,86,0.00,,---,0.98,VWS V14.01,2013-05-13 00:44:00,
2013-05-12 20:46:00,75.0,70.6,30.06,South,172,4.0,4.0,86,0.00,,---,0.98,VWS V14.01,2013-05-13 00:46:00,
2013-05-12 20:47:00,75.0,70.6,30.06,South,172,4.0,4.0,86,0.00,,---,0.98,VWS V14.01,2013-05-13 00:47:00,
2013-05-12 20:49:00,75.0,70.6,30.06,South,172,4.0,4.0,86,0.00,,---,0.98,VWS V14.01,2013-05-13 00:49:00,
2013-05-12 20:51:00,75.0,70.6,30.06,South,172,4.0,4.0,86,0.00,,---,0.98,VWS V14.01,2013-05-13 00:51:00,
2013-05-12 20:52:00,75.0,70.9,30.06,South,172,4.0,4.0,87,0.00,,---,0.98,VWS V14.01,2013-05-13 00:52:00,
2013-05-12 20:53:00,75.0,70.9,30.06,South,172,4.0,4.0,87,0.00,,---,0.98,VWS V14.01,2013-05-13 00:53:00,
2013-05-12 20:54:00,75.0,70.9,30.06,South,172,4.0,4.0,87,0.00,,---,0.98,VWS V14.01,2013-05-13 00:54:00,
2013-05-12 20:56:00,75.0,70.9,30.06,South,172,4.0,4.0,87,0.00,,---,0.98,VWS V14.01,2013-05-13 00:56:00,
2013-05-12 20:57:00,75.0,70.9,30.06,South,172,4.0,4.0,87,0.00,,---,0.98,VWS V14.01,2013-05-13 00:57:00,
2013-05-12 20:58:00,75.0,70.9,30.09,South,172,4.0,4.0,87,0.00,,---,0.98,VWS V14.01,2013-05-13 00:58:00,
2013-05-12 20:59:00,75.0,70.9,30.09,South,172,4.0,4.0,87,0.00,,---,0.98,VWS V14.01,2013-05-13 00:59:00,
2013-05-12 21:01:00,75.0,70.9,30.09,South,172,4.0,4.0,87,0.00,,---,0.98,VWS V14.01,2013-05-13 01:01:00,
2013-05-12 21:02:00,75.0,70.9,30.09,South,172,4.0,4.0,87,0.00,,---,0.98,VWS V14.01,2013-05-13 01:02:00,
2013-05-12 21:03:00,75.0,70.9,30.09,South,172,4.0,4.0,87,0.00,,---,0.98,VWS V14.01,2013-05-13 01:03:00,
2013-05-12 21:04:00,74.8,70.7,30.09,South,172,4.0,4.0,87,0.00,,---,0.98,VWS V14.01,2013-05-13 01:04:00,
2013-05-12 21:06:00,74.8,70.7,30.09,South,172,4.0,4.0,87,0.00,,---,0.98,VWS V14.01,2013-05-13 01:06:00,
2013-05-12 21:07:00,74.8,70.7,30.09,South,172,4.0,4.0,87,0.00,,---,0.98,VWS V14.01,2013-05-13 01:07:00,
2013-05-12 21:08:00,74.8,70.7,30.09,South,172,4.0,4.0,87,0.00,,---,0.98,VWS V14.01,2013-05-13 01:08:00,
2013-05-12 21:09:00,74.8,70.7,30.09,South,172,4.0,4.0,87,0.00,,---,0.98,VWS V14.01,2013-05-13 01:09:00,
2013-05-12 21:11:00,74.8,70.7,30.09,South,172,4.0,4.0,87,0.00,,---,0.98,VWS V14.01,2013-05-13 01:11:00,
2013-05-12 21:12:00,74.8,70.7,30.09,South,172,4.0,4.0,87,0.00,,---,0.98,VWS V14.01,2013-05-13 01:12:00,
2013-05-12 21:13:00,74.8,70.7,30.09,South,172,4.0,4.0,87,0.00,,---,0.98,VWS V14.01,2013-05-13 01:13:00,
2013-05-12 21:14:00,74.8,70.7,30.09,South,172,4.0,4.0,87,0.00,,---,0.98,VWS V14.01,2013-05-13 01:14:00,
2013-05-12 21:16:00,74.8,70.7,30.09,South,172,4.0,4.0,87,0.00,,---,0.98,VWS V14.01,2013-05-13 01:16:00,
2013-05-12 21:17:00,74.8,70.7,30.09,South,172,4.0,4.0,87,0.00,,---,0.98,VWS V14.01,2013-05-13 01:17:00,
2013-05-12 21:18:00,74.8,70.7,30.09,South,172,4.0,4.0,87,0.00,,---,0.98,VWS V14.01,2013-05-13 01:18:00,
2013-05-12 21:19:00,74.8,70.7,30.09,South,172,4.0,4.0,87,0.00,,---,0.98,VWS V14.01,2013-05-13 01:19:00,
2013-05-12 21:21:00,74.8,70.7,30.09,South,172,4.0,4.0,87,0.00,,---,0.98,VWS V14.01,2013-05-13 01:21:00,
2013-05-12 21:22:00,74.8,70.7,30.09,South,172,4.0,4.0,87,0.00,,---,0.98,VWS V14.01,2013-05-13 01:22:00,
2013-05-12 21:23:00,74.8,70.7,30.09,South,172,4.0,4.0,87,0.00,,---,0.98,VWS V14.01,2013-05-13 01:23:00,
2013-05-12 21:24:00,74.8,70.7,30.09,South,172,4.0,4.0,87,0.00,,---,0.98,VWS V14.01,2013-05-13 01:24:00,
2013-05-12 21:26:00,74.8,70.7,30.09,South,172,4.0,4.0,87,0.00,,---,0.98,VWS V14.01,2013-05-13 01:26:00,
2013-05-12 21:28:00,74.8,70.7,30.09,South,172,4.0,4.0,87,0.00,,---,0.98,VWS V14.01,2013-05-13 01:28:00,
2013-05-12 21:29:00,74.8,70.7,30.09,South,172,4.0,4.0,87,0.00,,---,0.98,VWS V14.01,2013-05-13 01:29:00,
2013-05-12 21:31:00,75.2,71.4,30.09,South,172,4.0,4.0,88,0.00,,---,0.98,VWS V14.01,2013-05-13 01:31:00,
2013-05-12 21:33:00,75.2,71.4,30.09,South,172,4.0,4.0,88,0.00,,---,0.98,VWS V14.01,2013-05-13 01:33:00,
2013-05-12 21:34:00,75.2,71.4,30.09,South,172,4.0,4.0,88,0.00,,---,0.98,VWS V14.01,2013-05-13 01:34:00,
2013-05-12 21:36:00,75.2,71.4,30.09,South,172,4.0,4.0,88,0.00,,---,0.98,VWS V14.01,2013-05-13 01:36:00,
2013-05-12 21:38:00,75.0,71.2,30.09,South,172,4.0,4.0,88,0.00,,---,0.98,VWS V14.01,2013-05-13 01:38:00,
2013-05-12 21:39:00,75.0,71.2,30.09,South,172,4.0,4.0,88,0.00,,---,0.98,VWS V14.01,2013-05-13 01:39:00,
2013-05-12 21:41:00,75.0,71.2,30.09,South,172,4.0,4.0,88,0.00,,---,0.98,VWS V14.01,2013-05-13 01:41:00,
2013-05-12 21:43:00,75.0,71.2,30.09,South,172,4.0,4.0,88,0.00,,---,0.98,VWS V14.01,2013-05-13 01:43:00,
2013-05-12 21:44:00,75.0,71.2,30.09,South,172,4.0,4.0,88,0.00,,---,0.98,VWS V14.01,2013-05-13 01:44:00,
2013-05-12 21:45:00,75.0,71.2,30.09,South,172,4.0,4.0,88,0.00,,---,0.98,VWS V14.01,2013-05-13 01:45:00,
2013-05-12 21:46:00,75.0,71.2,30.09,South,172,4.0,4.0,88,0.00,,---,0.98,VWS V14.01,2013-05-13 01:46:00,
2013-05-12 21:48:00,75.0,71.2,30.09,South,172,4.0,4.0,88,0.00,,---,0.98,VWS V14.01,2013-05-13 01:48:00,
2013-05-12 21:49:00,75.0,71.2,30.09,South,172,4.0,4.0,88,0.00,,---,0.98,VWS V14.01,2013-05-13 01:49:00,
2013-05-12 21:50:00,75.0,71.2,30.09,South,172,4.0,4.0,88,0.00,,---,0.98,VWS V14.01,2013-05-13 01:50:00,
2013-05-12 21:52:00,75.0,71.2,30.09,South,172,4.0,4.0,88,0.00,,---,0.98,VWS V14.01,2013-05-13 01:52:00,
2013-05-12 21:53:00,75.0,71.2,30.09,South,172,4.0,4.0,88,0.00,,---,0.98,VWS V14.01,2013-05-13 01:53:00,
2013-05-12 21:54:00,75.0,71.2,30.09,South,172,4.0,4.0,88,0.00,,---,0.98,VWS V14.01,2013-05-13 01:54:00,
2013-05-12 21:55:00,75.0,71.2,30.09,South,172,4.0,4.0,88,0.00,,---,0.98,VWS V14.01,2013-05-13 01:55:00,
2013-05-12 21:57:00,75.0,71.6,30.09,South,172,4.0,4.0,89,0.00,,---,0.98,VWS V14.01,2013-05-13 01:57:00,
2013-05-12 21:59:00,75.0,71.6,30.09,South,172,4.0,4.0,89,0.00,,---,0.98,VWS V14.01,2013-05-13 01:59:00,
2013-05-12 22:00:00,75.0,71.6,30.09,South,172,4.0,4.0,89,0.00,,---,0.98,VWS V14.01,2013-05-13 02:00:00,
2013-05-12 22:02:00,75.0,71.6,30.09,South,172,4.0,4.0,89,0.00,,---,0.98,VWS V14.01,2013-05-13 02:02:00,
2013-05-12 22:04:00,75.0,71.6,30.09,South,172,4.0,4.0,89,0.00,,---,0.98,VWS V14.01,2013-05-13 02:04:00,
2013-05-12 22:05:00,75.0,71.6,30.09,South,172,4.0,4.0,89,0.00,,---,0.98,VWS V14.01,2013-05-13 02:05:00,
2013-05-12 22:07:00,74.8,71.4,30.09,South,172,4.0,4.0,89,0.00,,---,0.98,VWS V14.01,2013-05-13 02:07:00,
2013-05-12 22:09:00,74.8,71.4,30.09,South,172,4.0,4.0,89,0.00,,---,0.98,VWS V14.01,2013-05-13 02:09:00,
2013-05-12 22:10:00,74.8,71.4,30.09,South,172,4.0,4.0,89,0.00,,---,0.98,VWS V14.01,2013-05-13 02:10:00,
2013-05-12 22:13:00,74.8,71.4,30.09,South,172,4.0,4.0,89,0.00,,---,0.98,VWS V14.01,2013-05-13 02:13:00,
2013-05-12 22:14:00,74.8,71.4,30.09,South,172,4.0,4.0,89,0.00,,---,0.98,VWS V14.01,2013-05-13 02:14:00,
2013-05-12 22:15:00,74.8,71.7,30.09,South,172,4.0,4.0,90,0.00,,---,0.98,VWS V14.01,2013-05-13 02:15:00,
2013-05-12 22:18:00,74.8,71.7,30.09,South,172,4.0,4.0,90,0.00,,---,0.98,VWS V14.01,2013-05-13 02:18:00,
2013-05-12 22:19:00,74.8,71.7,30.09,South,172,4.0,4.0,90,0.00,,---,0.98,VWS V14.01,2013-05-13 02:19:00,
2013-05-12 22:20:00,74.8,71.7,30.09,South,172,4.0,4.0,90,0.00,,---,0.98,VWS V14.01,2013-05-13 02:20:00,
2013-05-12 22:23:00,74.8,71.7,30.09,South,172,4.0,4.0,90,0.00,,---,0.00,VWS V14.01,2013-05-13 02:23:00,
2013-05-12 22:24:00,74.7,71.5,30.09,South,172,4.0,4.0,90,0.00,,---,0.98,VWS V14.01,2013-05-13 02:24:00,
2013-05-12 22:25:00,74.7,71.5,30.09,South,172,4.0,4.0,90,0.00,,---,0.98,VWS V14.01,2013-05-13 02:25:00,
2013-05-12 22:28:00,74.7,71.5,30.09,South,172,4.0,4.0,90,0.00,,---,0.98,VWS V14.01,2013-05-13 02:28:00,
2013-05-12 22:29:00,74.7,71.5,30.09,South,172,4.0,4.0,90,0.00,,---,0.98,VWS V14.01,2013-05-13 02:29:00,
2013-05-12 22:30:00,74.7,71.5,30.09,South,172,4.0,4.0,90,0.00,,---,0.98,VWS V14.01,2013-05-13 02:30:00,
2013-05-12 22:33:00,74.8,71.7,30.09,South,172,4.0,4.0,90,0.00,,---,0.98,VWS V14.01,2013-05-13 02:33:00,
2013-05-12 22:34:00,74.8,71.7,30.09,South,172,4.0,4.0,90,0.00,,---,0.98,VWS V14.01,2013-05-13 02:34:00,
2013-05-12 22:35:00,74.8,71.7,30.09,South,172,4.0,4.0,90,0.00,,---,0.98,VWS V14.01,2013-05-13 02:35:00,
2013-05-12 22:38:00,74.8,71.7,30.09,South,172,4.0,4.0,90,0.00,,---,0.98,VWS V14.01,2013-05-13 02:38:00,
2013-05-12 22:39:00,74.8,71.7,30.09,South,172,4.0,4.0,90,0.00,,---,0.98,VWS V14.01,2013-05-13 02:39:00,
2013-05-12 22:40:00,74.8,71.7,30.09,South,172,4.0,4.0,90,0.00,,---,0.98,VWS V14.01,2013-05-13 02:40:00,
2013-05-12 22:43:00,74.7,71.5,30.09,South,172,4.0,4.0,90,0.00,,---,0.98,VWS V14.01,2013-05-13 02:43:00,
2013-05-12 22:44:00,74.7,71.5,30.09,South,172,4.0,4.0,90,0.00,,---,0.98,VWS V14.01,2013-05-13 02:44:00,
2013-05-12 22:45:00,74.7,71.5,30.09,South,172,4.0,4.0,90,0.00,,---,0.98,VWS V14.01,2013-05-13 02:45:00,
2013-05-12 22:46:00,74.7,71.5,30.09,South,172,4.0,4.0,90,0.00,,---,0.98,VWS V14.01,2013-05-13 02:46:00,
2013-05-12 22:48:00,74.7,71.5,30.09,South,172,4.0,4.0,90,0.00,,---,0.98,VWS V14.01,2013-05-13 02:48:00,
2013-05-12 22:49:00,74.7,71.5,30.09,South,172,4.0,4.0,90,0.00,,---,0.98,VWS V14.01,2013-05-13 02:49:00,
2013-05-12 22:50:00,74.7,71.5,30.09,South,172,4.0,4.0,90,0.00,,---,0.98,VWS V14.01,2013-05-13 02:50:00,
2013-05-12 22:51:00,74.8,71.7,30.09,South,172,4.0,4.0,90,0.00,,---,0.98,VWS V14.01,2013-05-13 02:51:00,
2013-05-12 22:53:00,74.8,71.7,30.09,South,172,4.0,4.0,90,0.00,,---,0.98,VWS V14.01,2013-05-13 02:53:00,
2013-05-12 22:54:00,74.8,71.7,30.09,South,172,4.0,4.0,90,0.00,,---,0.98,VWS V14.01,2013-05-13 02:54:00,
2013-05-12 22:55:00,74.8,71.7,30.09,South,172,4.0,4.0,90,0.00,,---,0.98,VWS V14.01,2013-05-13 02:55:00,
2013-05-12 22:56:00,74.7,71.5,30.09,South,172,4.0,4.0,90,0.00,,---,0.98,VWS V14.01,2013-05-13 02:56:00,
2013-05-12 22:58:00,74.7,71.5,30.09,South,172,4.0,4.0,90,0.00,,---,0.98,VWS V14.01,2013-05-13 02:58:00,
2013-05-12 22:59:00,74.8,71.7,30.09,South,172,4.0,4.0,90,0.00,,---,0.98,VWS V14.01,2013-05-13 02:59:00,
2013-05-12 23:00:00,74.8,71.7,30.09,South,172,4.0,4.0,90,0.00,,---,0.98,VWS V14.01,2013-05-13 03:00:00,
2013-05-12 23:01:00,74.8,71.7,30.09,South,172,4.0,4.0,90,0.00,,---,0.98,VWS V14.01,2013-05-13 03:01:00,
2013-05-12 23:03:00,74.8,71.7,30.09,South,172,4.0,4.0,90,0.00,,---,0.98,VWS V14.01,2013-05-13 03:03:00,
2013-05-12 23:04:00,74.8,71.7,30.09,South,172,4.0,4.0,90,0.00,,---,0.98,VWS V14.01,2013-05-13 03:04:00,
2013-05-12 23:05:00,74.8,71.7,30.09,South,172,4.0,4.0,90,0.00,,---,0.98,VWS V14.01,2013-05-13 03:05:00,
2013-05-12 23:06:00,74.8,71.7,30.09,South,172,4.0,4.0,90,0.00,,---,0.98,VWS V14.01,2013-05-13 03:06:00,
2013-05-12 23:08:00,74.8,71.7,30.09,South,172,4.0,4.0,90,0.00,,---,0.98,VWS V14.01,2013-05-13 03:08:00,
2013-05-12 23:10:00,74.5,71.4,30.09,South,172,4.0,4.0,90,0.00,,---,0.98,VWS V14.01,2013-05-13 03:10:00,
2013-05-12 23:11:00,74.5,71.4,30.09,South,172,4.0,4.0,90,0.00,,---,0.98,VWS V14.01,2013-05-13 03:11:00,
2013-05-12 23:13:00,74.5,71.4,30.09,South,172,4.0,4.0,90,0.00,,---,0.98,VWS V14.01,2013-05-13 03:13:00,
2013-05-12 23:15:00,74.5,71.4,30.09,South,172,4.0,4.0,90,0.00,,---,0.98,VWS V14.01,2013-05-13 03:15:00,
2013-05-12 23:16:00,74.5,71.4,30.09,South,172,4.0,4.0,90,0.00,,---,0.98,VWS V14.01,2013-05-13 03:16:00,
2013-05-12 23:18:00,74.5,71.4,30.09,South,172,4.0,4.0,90,0.00,,---,0.98,VWS V14.01,2013-05-13 03:18:00,
2013-05-12 23:20:00,74.5,71.4,30.09,South,172,4.0,4.0,90,0.00,,---,0.98,VWS V14.01,2013-05-13 03:20:00,
2013-05-12 23:21:00,74.5,71.4,30.09,South,172,4.0,4.0,90,0.00,,---,0.98,VWS V14.01,2013-05-13 03:21:00,
2013-05-12 23:23:00,74.5,71.4,30.09,South,172,4.0,4.0,90,0.00,,---,0.98,VWS V14.01,2013-05-13 03:23:00,
2013-05-12 23:25:00,74.5,71.4,30.09,South,172,4.0,4.0,90,0.00,,---,0.98,VWS V14.01,2013-05-13 03:25:00,
2013-05-12 23:26:00,74.5,71.4,30.09,South,172,4.0,4.0,90,0.00,,---,0.98,VWS V14.01,2013-05-13 03:26:00,
2013-05-12 23:28:00,74.5,71.7,30.09,South,172,4.0,4.0,91,0.00,,---,0.98,VWS V14.01,2013-05-13 03:28:00,
2013-05-12 23:30:00,74.5,71.7,30.09,South,172,4.0,4.0,91,0.00,,---,0.98,VWS V14.01,2013-05-13 03:30:00,
2013-05-12 23:31:00,74.5,71.7,30.09,South,172,4.0,4.0,91,0.00,,---,0.98,VWS V14.01,2013-05-13 03:31:00,
2013-05-12 23:32:00,74.5,71.7,30.09,South,172,4.0,4.0,91,0.00,,---,0.98,VWS V14.01,2013-05-13 03:32:00,
2013-05-12 23:34:00,74.5,71.7,30.09,South,172,4.0,4.0,91,0.00,,---,0.98,VWS V14.01,2013-05-13 03:34:00,
2013-05-12 23:35:00,74.5,71.7,30.09,South,172,4.0,4.0,91,0.00,,---,0.98,VWS V14.01,2013-05-13 03:35:00,
2013-05-12 23:36:00,74.5,71.7,30.09,South,172,4.0,4.0,91,0.00,,---,0.98,VWS V14.01,2013-05-13 03:36:00,
2013-05-12 23:37:00,74.3,71.2,30.09,South,172,4.0,4.0,90,0.00,,---,0.98,VWS V14.01,2013-05-13 03:37:00,
2013-05-12 23:39:00,74.3,71.2,30.09,South,172,4.0,4.0,90,0.00,,---,0.98,VWS V14.01,2013-05-13 03:39:00,
2013-05-12 23:40:00,74.3,71.2,30.09,South,172,4.0,4.0,90,0.00,,---,0.98,VWS V14.01,2013-05-13 03:40:00,
2013-05-12 23:41:00,74.3,71.2,30.09,South,172,4.0,4.0,90,0.00,,---,0.98,VWS V14.01,2013-05-13 03:41:00,
2013-05-12 23:42:00,74.3,71.2,30.09,South,172,4.0,4.0,90,0.00,,---,0.98,VWS V14.01,2013-05-13 03:42:00,
2013-05-12 23:44:00,74.3,71.2,30.09,South,172,4.0,4.0,90,0.00,,---,0.98,VWS V14.01,2013-05-13 03:44:00,
2013-05-12 23:45:00,74.3,71.2,30.09,South,172,4.0,4.0,90,0.00,,---,0.98,VWS V14.01,2013-05-13 03:45:00,
2013-05-12 23:46:00,74.3,71.2,30.09,South,172,4.0,4.0,90,0.00,,---,0.98,VWS V14.01,2013-05-13 03:46:00,
2013-05-12 23:47:00,74.3,71.2,30.09,South,172,4.0,4.0,90,0.00,,---,0.98,VWS V14.01,2013-05-13 03:47:00,
2013-05-12 23:49:00,74.3,71.5,30.09,South,172,4.0,4.0,91,0.00,,---,0.98,VWS V14.01,2013-05-13 03:49:00,
2013-05-12 23:50:00,74.3,71.5,30.09,South,172,4.0,4.0,91,0.00,,---,0.98,VWS V14.01,2013-05-13 03:50:00,
2013-05-12 23:51:00,74.3,71.5,30.09,South,172,4.0,4.0,91,0.00,,---,0.98,VWS V14.01,2013-05-13 03:51:00,
2013-05-12 23:52:00,74.5,71.7,30.09,South,172,4.0,4.0,91,0.00,,---,0.98,VWS V14.01,2013-05-13 03:52:00,
2013-05-12 23:54:00,74.5,71.7,30.09,South,172,4.0,4.0,91,0.00,,---,0.98,VWS V14.01,2013-05-13 03:54:00,
2013-05-12 23:55:00,74.5,71.7,30.09,South,172,4.0,4.0,91,0.00,,---,0.98,VWS V14.01,2013-05-13 03:55:00,
2013-05-12 23:56:00,74.5,71.7,30.09,South,172,4.0,4.0,91,0.00,,---,0.98,VWS V14.01,2013-05-13 03:56:00,
2013-05-12 23:57:00,74.5,71.7,30.09,South,172,4.0,4.0,91,0.00,,---,0.98,VWS V14.01,2013-05-13 03:57:00,
2013-05-12 23:59:00,74.5,71.7,30.09,South,172,4.0,4.0,91,0.00,,---,0.98,VWS V14.01,2013-05-13 03:59:00,